GEFSSGP_con_cape1000_162.txt.gz
Probability
23 29 39 52 55 10 3 0 0 3 3 10 3 3 3 6 6 61 65 23 32 71 81 94 97 100 100 100 100 100 100 100 100 97 97 97 97 97 97 97 97 90 90 97 97 97 90 90 97
10 19 35 39 10 0 0 0 3 0 10 10 13 10 16 32 74 65 48 35 39 71 87 94 100 100 100 100 100 100 100 100 100 100 97 97 97 97 97 97 97 94 97 97 100 97 90 90 94
6 19 16 13 3 0 0 0 3 3 13 10 26 29 29 55 68 65 55 48 58 77 90 100 100 100 100 100 100 100 100 100 100 100 97 97 100 100 97 97 94 94 94 94 100 97 97 94 94
13 6 6 0 0 0 0 0 3 3 13 16 23 29 61 77 74 68 65 58 71 77 87 100 100 100 100 100 100 100 100 100 100 100 97 97 100 97 97 97 94 90 94 94 100 100 97 87 94
3 3 0 0 0 0 0 3 3 6 13 19 19 39 77 87 84 84 84 71 74 71 90 94 100 100 100 100 100 100 100 100 100 100 100 100 97 97 97 97 97 97 94 97 94 94 90 87 90
3 0 0 0 0 0 0 3 3 6 19 29 23 39 87 90 90 87 87 77 61 71 90 97 100 100 100 100 100 100 100 100 100 100 100 100 97 97 94 94 94 97 97 94 94 94 94 97 90
6 0 0 0 0 0 3 6 3 6 23 23 23 45 90 94 97 90 94 87 68 77 90 97 97 97 100 100 100 100 100 100 100 100 100 97 97 97 94 97 97 97 94 90 84 87 84 90 87
3 0 0 0 0 3 6 10 6 13 26 42 32 39 81 97 97 97 94 90 87 94 94 94 97 97 97 97 100 100 100 100 100 100 100 94 94 97 97 97 97 94 94 90 84 84 81 84 81
3 0 0 0 0 3 6 10 10 16 48 71 52 68 81 97 97 97 94 94 97 94 97 97 97 97 94 97 100 100 100 100 100 100 97 97 90 87 90 87 97 90 81 90 94 87 77 81 77
3 0 0 0 0 3 3 6 16 29 48 81 87 94 97 97 97 97 97 94 97 97 94 97 100 100 97 97 100 100 97 100 100 97 97 97 97 94 87 94 94 77 81 77 77 77 58 58 55
3 0 0 0 0 3 3 3 10 19 32 61 87 94 100 97 97 97 97 94 97 97 97 97 97 94 90 100 100 94 97 100 97 97 100 97 94 94 94 97 90 90 71 74 74 58 48 35 42
0 0 0 0 0 3 3 3 6 10 23 39 65 97 100 100 97 97 97 97 97 97 97 97 100 100 100 97 97 97 97 100 97 94 94 94 87 87 90 94 94 94 81 77 58 58 45 42 35
0 0 0 0 0 3 3 3 3 6 29 45 61 94 100 100 97 94 94 94 97 100 97 100 100 100 100 100 100 94 90 90 94 97 87 84 84 84 74 77 87 58 55 55 58 55 61 48 42
0 0 0 0 0 0 3 3 3 13 29 52 77 97 100 100 97 97 97 97 100 100 97 100 100 100 100 100 100 94 94 100 94 94 87 84 81 87 81 84 84 58 45 42 48 48 65 39 42
0 0 0 0 0 0 0 6 6 16 32 55 74 94 100 100 97 97 94 100 100 100 100 100 100 100 100 100 100 90 94 94 94 90 90 90 81 81 71 71 74 55 55 65 74 65 55 52 39
0 0 0 0 0 0 0 0 3 23 35 58 74 87 100 100 100 94 97 97 100 100 100 100 100 100 100 100 100 90 90 94 90 87 90 87 81 84 84 65 45 61 58 55 58 55 55 48 48
0 0 0 0 0 0 0 0 13 35 42 61 84 94 97 100 100 97 97 97 97 100 100 100 100 100 100 97 100 97 94 97 87 84 87 87 87 84 77 65 61 65 55 45 39 48 45 39 39
0 0 0 0 0 0 0 0 23 39 42 61 77 94 97 97 97 97 97 97 97 100 100 100 100 97 97 94 94 97 97 90 84 84 84 84 87 87 74 74 71 58 58 61 61 52 52 48 52
0 0 0 0 0 0 0 10 16 32 52 55 68 94 97 97 97 97 97 97 97 100 100 100 100 97 97 94 90 94 90 87 77 77 81 84 81 81 81 55 81 71 55 61 48 48 42 45 45
0 0 0 0 3 3 3 6 10 23 45 58 65 84 87 90 94 94 94 97 97 97 100 100 100 100 97 94 87 94 90 90 77 74 81 77 77 77 71 74 68 68 71 61 61 58 52 42 39
0 0 0 0 3 3 3 3 16 19 42 48 58 74 81 90 90 94 94 94 94 94 94 90 97 97 97 94 90 87 90 77 71 71 77 77 77 77 77 74 68 68 58 68 74 61 48 48 29
0 0 0 0 0 0 3 0 3 23 39 52 52 55 61 77 84 90 94 90 87 87 90 90 90 94 90 87 81 74 81 68 68 77 81 81 77 74 65 74 68 71 61 71 52 35 45 52 32
0 0 0 0 0 0 0 0 0 13 26 39 45 58 58 68 74 84 87 90 87 87 84 90 87 90 87 77 81 84 84 77 74 81 81 77 71 74 68 71 71 71 65 58 58 55 45 39 32
0 0 0 0 0 0 0 0 3 13 23 29 35 55 61 65 65 81 84 84 84 77 84 87 87 84 87 81 81 77 84 81 71 68 74 65 65 74 71 68 71 71 65 68 58 58 55 48 48
0 0 0 0 0 0 0 0 3 10 13 29 39 48 58 61 68 71 71 81 81 81 84 84 87 77 81 84 77 81 84 84 74 65 68 52 52 55 65 55 65 68 68 68 61 61 55 58 61
0 0 0 0 0 0 3 0 10 13 19 23 45 48 55 65 65 65 71 68 74 74 84 74 71 71 81 74 74 71 81 77 68 68 52 52 35 42 52 55 58 55 65 45 68 58 55 61 61
0 0 0 0 0 0 0 3 13 16 19 26 39 45 45 48 52 61 65 65 65 68 71 74 74 74 77 74 71 68 74 81 68 65 58 48 58 35 39 52 52 52 52 48 61 55 55 52 39
0 0 0 0 0 0 0 0 0 26 29 23 45 52 48 52 55 61 58 61 65 65 77 71 65 71 68 68 61 52 65 71 68 61 58 58 52 48 39 39 48 52 48 52 58 45 45 45 48
0 0 0 0 0 0 0 0 3 16 23 29 45 52 52 55 58 58 58 65 61 55 48 55 65 65 74 65 52 52 48 58 55 55 55 52 55 48 35 32 39 48 48 48 52 39 35 35 39
0 0 0 0 0 0 0 0 6 19 26 35 42 48 55 55 58 58 55 61 55 52 55 48 48 48 58 48 52 55 58 52 52 48 45 45 52 42 39 35 45 35 42 48 48 42 29 29 29

GEFSSGP_con_cape1000_168.txt.gz
Probability
3 6 29 48 52 55 3 0 0 0 0 0 0 3 16 29 35 45 39 52 77 81 94 97 97 97 100 100 100 100 97 97 97 97 97 97 97 97 94 90 87 90 87 94 97 94 97 94 94
10 19 32 35 32 10 3 0 0 0 0 0 3 13 16 26 26 29 52 74 77 77 90 97 97 97 100 100 100 100 97 97 97 97 97 97 97 97 97 97 94 97 94 94 94 94 94 94 94
13 19 23 39 26 0 0 0 0 3 3 6 6 13 19 29 29 42 68 77 65 77 97 97 97 97 100 100 100 100 97 97 97 97 97 97 94 94 97 94 97 97 94 94 97 90 90 90 94
19 13 16 13 0 0 0 0 0 3 3 6 6 19 35 42 42 48 68 74 77 94 94 100 100 100 100 100 100 100 100 97 97 97 97 97 97 94 94 97 97 97 97 100 90 87 90 87 81
10 3 0 0 0 0 0 0 0 3 6 6 29 45 45 52 55 45 65 68 77 90 97 97 100 100 100 100 100 100 97 97 97 97 97 97 97 94 97 97 97 97 100 97 94 90 87 81 74
3 3 0 0 0 0 0 0 0 6 6 6 39 55 52 52 55 45 65 68 84 90 97 100 100 100 100 100 100 100 100 97 97 97 97 97 94 97 94 97 97 100 90 90 97 97 90 74 65
3 3 0 0 0 0 0 0 0 3 6 6 32 61 58 58 61 55 68 68 84 90 97 97 100 100 100 100 100 100 100 100 100 100 100 90 90 90 90 94 97 97 97 94 97 94 84 81 65
3 3 0 0 0 0 0 3 3 0 6 3 13 61 71 74 68 58 61 81 87 90 94 97 100 97 97 97 100 100 100 100 100 100 97 94 94 90 90 97 97 94 90 87 87 84 84 77 65
3 3 0 0 0 0 0 3 3 3 0 3 26 71 81 77 77 71 68 84 94 94 97 100 97 97 97 94 97 100 100 100 100 94 97 94 87 90 94 90 94 87 84 84 87 84 74 74 58
0 0 0 0 0 0 0 3 6 0 0 23 71 84 84 77 81 77 74 90 94 97 97 97 100 100 100 97 100 100 97 100 100 94 94 97 94 90 90 97 90 84 81 74 74 77 71 58 39
0 0 0 0 0 0 0 3 0 3 6 35 74 94 94 87 84 84 84 94 94 97 94 97 100 100 100 100 100 100 97 100 100 100 97 100 97 90 87 87 84 87 74 77 74 61 55 52 58
0 0 0 0 0 0 0 0 0 6 10 29 65 90 97 94 90 87 90 94 94 97 97 100 100 100 100 100 97 100 100 100 100 100 100 94 97 94 94 94 90 90 87 84 87 87 68 52 61
0 0 0 0 0 0 0 0 3 10 13 26 65 87 97 97 90 90 94 97 97 100 97 100 100 100 100 100 100 100 100 97 100 100 100 97 94 97 100 97 97 94 90 90 90 81 77 65 58
0 0 0 0 0 0 0 0 3 10 19 52 68 94 87 94 94 90 97 100 100 100 100 100 100 100 100 100 100 100 100 100 100 100 100 97 94 100 100 97 94 90 87 87 87 81 87 84 74
0 0 0 0 0 0 0 0 6 16 29 52 74 81 94 94 94 90 100 100 100 100 100 100 100 100 100 100 100 97 100 100 100 100 100 97 97 97 97 94 97 87 87 87 84 74 87 81 71
0 0 0 0 0 0 0 0 0 16 26 42 71 77 94 100 97 97 100 100 100 100 100 100 100 100 100 100 100 100 100 100 100 100 97 97 97 90 94 90 97 90 90 94 87 87 84 77 74
0 0 0 0 0 0 0 0 3 10 19 32 61 84 94 97 97 100 100 100 100 100 100 100 100 100 100 100 100 100 97 97 97 94 97 94 90 90 90 90 94 87 87 90 71 77 81 74 74
0 0 0 0 0 0 0 0 3 3 13 29 48 81 94 94 100 100 100 100 97 100 100 100 100 100 100 97 97 97 87 87 87 87 90 90 87 87 87 84 84 84 81 77 77 81 77 77 68
0 0 0 0 0 0 0 0 3 6 16 26 52 65 90 97 97 100 100 97 97 97 97 97 100 100 97 97 97 90 87 87 84 84 90 84 87 87 87 81 84 87 81 81 77 77 77 68 71
0 0 0 0 0 0 0 0 0 6 16 29 52 61 81 97 97 97 97 97 97 97 97 97 97 100 100 97 97 97 90 90 84 87 84 84 84 84 77 84 84 84 90 77 71 74 74 71 58
0 0 0 0 0 0 0 0 0 6 16 35 35 65 71 90 97 100 97 97 97 97 97 97 97 100 100 100 97 100 97 94 87 87 84 84 84 84 84 84 81 84 84 77 71 71 68 61 65
0 0 0 0 0 0 0 0 10 13 19 26 35 55 71 81 94 100 97 97 97 97 97 97 97 100 100 100 97 97 87 87 87 87 81 81 84 84 87 84 74 81 74 81 74 68 65 71 55
0 0 0 0 0 0 0 0 3 10 10 29 42 48 55 77 87 100 94 97 94 94 94 97 97 100 100 100 97 97 100 97 94 90 90 81 81 77 74 74 77 81 84 81 74 81 71 74 58
0 0 0 0 0 0 0 0 0 3 13 13 23 39 65 68 81 97 94 94 94 94 90 94 97 100 100 97 97 97 94 97 94 90 77 77 81 77 74 74 81 81 74 81 71 68 74 71 68
0 0 0 0 0 0 0 0 10 6 3 10 19 35 45 58 81 97 94 90 90 87 90 90 97 97 100 97 97 97 90 87 94 87 74 74 71 74 68 71 81 74 74 74 71 71 71 68 71
0 0 0 0 0 0 0 0 6 10 3 16 29 48 52 58 68 81 87 81 77 87 90 87 90 90 94 94 90 90 87 84 87 90 71 74 71 71 74 77 74 77 77 71 74 71 71 68 68
0 0 0 0 0 0 0 10 16 13 16 23 29 45 45 52 71 71 81 77 84 87 84 84 87 90 87 90 87 84 84 81 81 87 84 77 71 68 68 68 68 74 71 74 68 68 68 71 58
0 0 0 0 0 0 0 3 13 26 29 32 32 35 42 61 61 68 74 81 84 87 84 84 87 87 84 84 77 77 74 77 84 81 74 74 65 58 61 65 58 68 61 61 65 65 65 61 61
0 0 0 0 0 0 0 3 10 26 32 26 29 48 55 61 65 71 74 74 77 71 77 81 90 87 84 84 81 84 77 74 74 81 81 74 77 68 61 61 55 58 52 58 58 65 58 55 55
0 0 0 0 10 3 0 6 10 16 26 29 39 52 61 61 71 74 74 81 74 77 77 81 77 81 74 81 81 81 77 74 71 71 77 74 71 61 61 58 52 48 39 42 42 45 45 42 42

GEFSSGP_con_cape1000_174.txt.gz
Probability
10 10 0 3 29 10 0 0 0 0 3 0 10 10 13 16 6 13 10 23 55 90 94 97 97 100 97 97 97 97 97 97 97 97 97 97 94 90 94 90 94 97 97 94 97 94 94 90 90
0 0 3 13 6 0 0 0 0 0 0 3 6 13 26 35 39 29 23 55 74 90 90 97 97 100 100 97 97 97 97 97 97 97 97 97 97 94 97 94 97 97 94 94 97 90 84 84 90
3 3 6 6 0 0 0 0 0 3 3 10 16 16 32 42 61 35 39 61 77 84 90 97 100 100 100 97 97 97 97 97 97 97 97 97 97 94 97 97 97 97 97 94 94 84 81 77 81
3 3 3 6 0 0 0 0 0 3 6 13 29 29 32 55 61 42 55 74 71 87 97 97 100 100 100 100 100 100 100 97 97 97 97 97 97 100 100 100 100 97 97 90 87 84 77 81 87
3 0 0 0 0 0 0 0 0 6 16 29 26 39 45 52 58 52 58 71 81 94 97 97 100 100 100 100 100 100 100 100 100 100 100 100 100 100 100 100 100 97 97 87 87 84 77 77 74
3 0 0 0 0 0 0 3 6 16 23 29 26 35 29 48 52 52 71 74 84 94 97 97 100 100 100 100 100 100 100 97 100 97 100 100 100 100 100 100 100 100 100 90 84 84 68 71 81
0 0 0 0 0 0 0 3 6 19 23 26 32 23 32 39 58 61 77 84 87 94 94 94 100 100 100 100 100 100 100 100 100 97 100 100 100 100 100 100 100 100 97 90 81 71 65 65 77
0 0 0 0 0 0 0 3 6 10 29 32 35 23 29 35 48 65 81 84 90 94 94 94 97 97 97 100 100 100 100 100 100 100 100 100 100 100 97 97 100 97 94 87 81 65 65 68 65
0 0 0 0 0 0 0 0 6 6 29 32 32 29 35 42 58 68 77 81 84 87 94 90 94 94 97 97 100 100 100 100 100 100 100 97 81 87 94 94 94 90 97 84 77 61 61 58 61
0 0 0 0 0 0 0 0 0 19 32 29 32 42 39 48 65 77 81 74 81 81 90 90 87 90 94 97 97 94 94 94 94 87 84 58 48 61 71 94 94 87 84 77 81 81 61 29 13
0 0 0 0 0 0 0 0 0 19 29 29 32 35 35 48 61 77 74 71 77 81 87 87 90 87 84 94 90 87 87 84 74 74 68 58 48 61 55 68 71 71 71 48 61 55 29 13 6
0 0 0 0 0 0 0 0 0 6 19 32 35 42 35 52 55 71 77 71 68 84 84 87 87 81 84 90 87 74 71 77 74 61 55 45 42 42 35 39 42 39 26 16 32 10 6 0 3
0 0 0 0 0 0 0 3 3 13 32 45 48 45 32 39 48 58 68 77 68 77 84 90 87 84 84 81 81 81 68 77 65 65 45 35 29 29 23 32 29 26 10 6 3 0 0 0 0
0 0 0 0 0 0 0 0 6 29 35 52 52 42 35 48 48 58 74 84 77 81 94 94 90 81 81 77 74 71 71 61 65 68 58 45 26 26 26 23 23 16 10 3 3 0 0 3 6
0 0 0 0 0 0 3 3 10 32 32 42 52 52 48 52 55 71 71 81 77 81 90 87 87 81 71 68 68 68 68 55 65 68 55 55 39 29 23 16 16 16 13 3 0 0 0 3 3
0 0 0 0 0 3 0 3 13 32 39 42 48 55 61 55 61 77 81 68 68 84 90 84 100 84 81 65 61 58 71 55 58 45 55 45 48 32 23 16 19 23 10 3 0 0 3 0 0
0 0 0 0 0 0 0 3 13 26 35 39 52 55 61 61 65 71 81 68 61 81 84 81 94 81 81 74 61 61 61 58 61 48 45 45 55 39 23 23 13 13 6 3 3 0 0 0 0
0 0 0 0 0 0 0 0 13 26 32 39 55 71 74 71 71 77 81 77 74 84 77 77 90 90 84 74 68 65 55 58 55 52 42 48 52 48 26 19 10 16 6 6 0 0 3 0 0
0 0 0 0 0 0 0 3 6 16 39 45 61 74 84 81 84 74 84 81 87 84 77 87 90 84 87 81 68 55 55 52 52 45 45 48 42 42 23 23 10 10 6 6 3 0 0 0 0
0 0 0 0 0 0 0 3 10 13 35 48 58 68 84 87 84 81 87 97 90 94 90 90 94 87 87 81 58 48 48 48 52 52 45 45 39 32 26 13 16 10 6 6 6 0 0 0 0
0 0 0 0 0 0 0 3 13 16 26 32 52 68 84 84 87 87 90 94 94 94 90 94 90 90 90 71 61 55 48 45 45 48 48 45 39 29 26 16 13 10 3 3 3 0 0 0 0
0 0 0 0 0 0 0 0 3 16 16 39 55 61 81 84 87 87 87 90 90 94 94 94 94 90 84 77 68 45 55 48 39 45 42 52 42 39 26 16 13 10 3 3 3 3 0 0 0
0 0 0 0 0 0 0 0 3 3 16 23 35 45 71 74 84 90 84 81 81 87 97 94 90 87 84 81 71 55 48 42 29 26 29 35 39 32 39 32 16 13 6 3 3 3 3 3 0
0 0 0 0 0 0 0 0 3 6 13 19 32 45 71 77 84 81 81 81 77 81 81 87 81 90 84 81 71 52 45 42 29 26 29 32 32 32 35 35 23 13 10 6 3 3 3 3 3
0 0 0 0 0 0 0 0 0 0 13 16 26 39 61 71 77 77 81 81 84 81 81 84 84 77 77 77 68 58 45 35 26 26 29 19 26 26 29 42 23 16 10 6 6 6 3 3 3
0 0 0 0 0 0 0 0 0 3 10 13 26 35 58 55 68 74 74 71 68 74 74 77 77 81 74 71 65 52 42 35 35 23 23 23 19 23 19 26 19 19 16 16 6 6 3 3 3
0 0 0 0 0 0 0 0 3 6 6 10 19 32 42 58 58 52 55 55 55 71 71 71 74 71 71 65 55 48 35 35 32 29 29 26 16 19 19 13 13 10 10 10 6 6 3 3 3
0 0 0 0 0 0 0 0 0 6 10 6 19 32 39 52 65 48 52 58 61 68 71 68 65 65 61 61 55 55 42 39 32 19 19 19 19 16 16 10 6 13 10 6 6 6 3 3 3
0 0 0 0 0 0 0 0 0 3 10 6 16 23 35 39 48 55 58 61 65 61 68 65 61 58 61 55 55 52 48 35 29 26 23 19 16 16 16 16 13 10 6 6 3 6 6 3 0
0 0 0 0 0 0 0 0 0 6 10 19 26 26 39 42 52 55 58 61 61 58 65 68 61 61 61 55 58 52 48 39 29 23 23 23 16 13 16 13 13 6 3 6 3 3 3 3 3

GEFSSGP_con_cape1000_180.txt.gz
Probability
3 10 6 0 0 0 0 0 0 0 6 0 0 0 0 0 0 0 3 16 58 84 94 94 97 97 97 97 97 97 97 97 97 90 94 97 94 97 97 100 100 100 100 97 97 97 97 97 97
3 3 0 0 0 0 0 0 0 3 6 10 13 23 26 26 19 10 10 55 77 84 87 94 94 97 97 97 100 97 97 97 97 94 94 90 90 97 97 100 100 97 94 94 97 97 97 94 90
0 0 0 0 0 0 0 0 0 3 3 10 10 26 35 26 19 13 23 65 84 84 90 94 94 100 100 100 100 97 97 97 97 94 94 90 90 97 97 100 97 94 90 90 90 94 94 94 94
3 0 0 0 0 0 0 0 3 3 3 16 29 32 35 35 26 26 52 77 87 90 94 94 97 97 97 97 97 97 97 97 97 97 90 90 94 97 97 97 97 94 90 90 87 87 90 94 94
0 0 0 0 0 0 0 0 3 0 19 23 23 29 35 55 55 42 68 74 74 90 94 94 94 97 97 97 97 97 97 97 97 97 90 94 97 100 97 97 97 87 90 84 90 90 94 94 94
0 0 0 0 0 0 0 0 0 10 23 26 23 29 39 52 58 61 68 68 84 94 94 97 100 100 97 97 97 97 97 97 97 97 97 97 97 100 100 94 90 84 84 84 87 90 94 94 90
0 0 0 0 0 0 0 0 0 16 16 19 16 29 39 55 55 65 65 81 87 94 94 94 97 97 97 97 97 97 97 97 97 97 97 100 100 100 97 90 90 87 84 77 87 90 87 87 90
0 0 0 0 0 0 0 3 10 16 29 29 23 16 26 42 55 61 68 84 90 90 90 90 97 97 97 97 100 97 97 97 100 100 100 100 97 97 90 97 90 84 84 77 84 87 87 90 87
0 0 0 0 0 0 0 0 10 19 29 32 23 19 29 52 58 58 68 84 90 90 87 87 94 97 97 97 97 97 100 100 100 97 94 90 77 77 87 87 84 84 74 77 81 74 81 84 81
0 0 0 0 0 0 3 3 16 26 29 29 32 39 61 68 65 58 61 71 84 90 87 81 87 94 97 97 94 90 94 90 90 87 81 58 48 58 77 94 87 84 84 84 87 77 71 29 39
0 0 0 0 0 3 3 3 6 19 23 26 39 65 74 68 68 42 35 42 68 81 84 84 87 87 87 90 87 84 84 74 71 68 55 42 35 52 48 65 61 61 65 42 45 39 13 6 3
0 0 0 0 0 3 3 3 6 13 10 19 48 74 74 65 55 42 23 32 61 71 84 87 87 84 84 84 84 71 71 58 55 52 45 29 26 26 35 39 32 29 23 19 19 13 3 3 3
0 0 0 0 0 3 3 3 10 13 23 35 65 77 71 74 58 45 35 32 58 68 81 84 84 81 71 77 74 68 61 58 48 42 39 29 26 23 26 23 23 19 10 6 3 0 0 0 3
0 0 0 0 0 0 3 0 0 16 23 42 61 68 71 68 61 52 39 42 45 65 65 77 77 68 68 68 61 58 55 52 39 42 35 32 23 19 16 13 13 13 3 0 0 0 0 3 3
0 0 0 0 0 0 0 0 13 16 32 42 58 58 61 68 61 58 52 45 52 48 58 65 71 68 52 58 55 42 45 45 42 48 35 29 16 16 16 13 13 6 0 0 0 0 0 3 3
0 0 0 0 0 0 0 0 13 16 29 32 48 55 58 52 55 55 52 45 45 39 52 61 74 55 45 39 42 39 42 35 35 39 32 26 23 16 16 13 10 0 3 3 3 3 3 3 0
0 0 0 0 0 0 0 0 10 19 26 35 35 35 55 55 52 48 48 42 42 35 48 58 55 48 42 32 29 29 23 29 32 19 23 26 19 26 16 16 13 0 3 3 3 3 3 3 3
0 0 0 0 0 0 0 0 10 23 29 32 32 32 35 52 48 55 52 48 45 35 48 48 45 39 39 23 23 26 29 32 23 26 23 23 26 23 16 13 6 3 0 0 0 3 0 3 3
0 0 0 0 0 0 0 0 10 16 29 39 29 32 29 35 35 42 55 52 55 35 39 48 45 32 29 32 35 39 42 32 23 26 26 23 23 19 19 16 3 3 0 3 0 0 0 0 0
0 0 0 0 0 0 0 6 6 10 19 32 39 29 29 29 35 45 42 58 58 45 42 39 42 39 35 42 29 26 23 23 26 26 26 23 23 19 19 13 10 10 3 3 3 3 0 0 0
0 0 0 0 0 0 0 3 10 6 13 19 29 26 32 42 42 45 48 52 61 55 48 55 45 45 45 35 26 23 16 23 29 23 26 26 19 19 19 16 10 10 3 3 3 3 0 0 0
0 0 0 0 0 0 0 3 3 3 10 13 26 29 32 35 48 55 55 58 58 68 55 52 48 45 45 42 29 32 29 32 35 32 29 23 23 16 16 16 10 10 6 3 3 3 3 3 0
0 0 0 0 0 0 0 0 0 0 6 13 23 35 29 45 45 48 55 65 65 65 65 55 48 52 45 39 35 29 32 26 16 16 23 19 16 13 13 19 10 10 6 3 3 3 3 0 0
0 0 0 0 0 0 0 0 0 0 3 6 13 19 29 48 45 48 58 68 71 74 77 61 55 52 35 35 35 35 32 23 16 19 19 23 13 13 13 16 10 6 10 6 3 3 3 3 3
0 0 0 0 0 0 0 0 0 0 3 3 6 19 35 39 42 35 52 58 65 61 71 71 61 45 45 32 29 26 26 13 16 16 10 16 16 16 13 6 6 6 0 0 3 0 3 3 3
0 0 0 0 0 0 0 0 0 3 3 10 13 26 35 32 29 35 55 61 61 61 58 68 58 55 52 45 39 35 19 19 23 10 13 13 13 13 10 10 6 6 3 3 3 3 3 3 0
0 0 0 0 0 0 0 0 0 6 6 19 23 29 32 32 32 39 48 52 48 48 48 52 55 58 52 48 39 32 26 23 23 10 10 10 6 6 3 3 6 6 6 6 3 0 0 0 0
0 0 0 0 0 0 0 0 0 3 13 16 19 23 29 32 32 39 48 48 45 45 45 45 55 55 55 48 35 32 32 29 26 16 6 6 6 6 3 3 3 3 3 3 3 3 0 0 0
0 0 0 0 0 0 0 0 0 0 10 13 13 19 29 32 26 32 42 42 42 45 42 48 42 45 42 42 42 39 29 32 26 19 13 10 10 10 13 6 3 3 3 3 3 3 3 3 0
0 0 0 0 0 0 0 0 0 0 10 19 19 26 42 45 29 39 45 42 45 42 42 42 45 45 42 42 42 39 32 23 19 19 19 13 10 10 6 10 10 10 10 3 3 3 3 0 0

GEFSSGP_con_cape1000_186.txt.gz
Probability
10 13 26 39 19 0 0 0 0 0 0 0 0 0 3 3 3 16 10 6 6 26 74 87 94 94 94 94 97 97 97 97 97 97 94 97 97 97 94 97 97 97 100 100 97 97 97 94 94
10 16 32 23 0 0 0 0 0 0 0 0 3 6 13 29 19 16 3 6 19 39 65 81 94 94 94 94 94 97 97 97 97 94 94 97 97 97 97 97 97 100 100 97 94 94 94 94 94
10 13 19 0 0 0 0 0 0 0 0 3 6 19 26 29 13 13 16 10 29 35 77 90 94 94 94 94 94 97 97 97 94 94 94 97 97 97 94 94 94 97 100 94 94 90 90 90 94
3 6 0 0 0 0 0 0 0 0 0 3 13 19 23 32 19 23 16 13 23 39 65 90 94 94 94 94 94 97 97 97 94 94 94 97 97 97 97 90 97 94 90 94 90 94 90 90 90
3 0 0 0 0 0 0 0 0 0 0 3 3 16 42 48 35 26 32 16 19 29 74 87 94 90 90 97 97 97 97 97 97 94 94 94 97 100 90 94 90 90 90 87 94 94 90 87 87
0 0 0 0 0 0 0 3 0 0 3 3 3 13 55 61 45 52 35 19 26 35 71 90 94 90 97 97 97 97 97 97 97 94 94 97 97 100 87 90 87 87 90 90 94 94 94 87 87
0 0 0 0 0 0 0 3 0 0 6 3 6 16 58 61 74 68 61 32 29 45 77 87 90 97 97 97 97 97 97 97 97 97 97 97 97 94 87 90 87 87 94 94 97 94 90 90 90
0 0 0 0 0 0 0 3 0 0 16 23 13 16 42 81 77 74 68 52 45 52 74 81 87 97 97 97 97 97 97 97 97 97 97 94 94 94 87 90 90 94 94 94 87 87 90 87 84
0 0 0 0 0 0 0 3 6 6 29 26 19 23 48 77 74 81 84 74 74 68 81 84 90 97 90 90 97 97 97 97 97 94 97 94 77 65 81 84 87 90 90 90 81 81 81 84 77
0 0 0 0 0 0 0 3 10 19 35 48 48 65 81 84 81 81 81 74 74 84 81 84 87 87 81 81 100 94 94 94 94 94 94 87 87 84 71 94 87 84 84 87 77 71 61 61 65
0 0 0 0 0 0 0 3 6 13 13 35 65 90 84 84 74 74 65 68 81 84 84 87 87 87 87 94 94 97 94 94 90 87 94 100 84 74 74 84 84 84 71 68 74 65 55 48 58
0 0 0 0 0 0 0 0 6 10 10 26 65 87 87 81 74 71 74 77 87 87 84 90 90 97 97 90 90 94 97 94 94 90 87 81 77 74 68 77 71 61 71 81 61 74 45 45 39
0 0 0 0 0 0 0 3 10 10 29 55 81 94 90 77 77 74 77 81 84 90 87 90 94 97 94 94 87 90 94 87 94 100 84 84 74 71 65 84 84 65 55 61 61 48 61 55 48
0 0 0 0 0 0 0 3 10 26 58 68 87 94 90 77 74 74 74 77 84 90 90 90 94 100 97 97 97 94 94 100 84 84 87 84 74 74 74 84 84 61 55 45 35 32 55 48 48
0 0 0 0 0 0 0 3 13 35 65 74 87 94 94 84 81 74 84 87 84 90 94 94 97 100 100 94 97 90 84 87 77 90 94 81 71 84 81 58 65 48 52 61 65 48 48 55 42
0 0 0 0 0 6 0 3 23 45 58 71 81 90 94 94 84 84 87 90 90 94 94 94 94 97 97 100 97 90 87 87 90 84 94 81 71 81 87 58 55 61 48 48 58 58 45 52 45
0 0 0 0 0 3 3 3 23 39 52 68 74 84 94 94 90 87 90 94 94 94 94 100 97 97 97 97 97 100 97 97 90 94 90 87 77 81 71 71 81 71 55 52 39 42 39 45 55
0 0 0 0 3 3 3 3 26 29 35 58 77 81 90 94 94 90 90 94 94 94 100 100 100 100 100 100 100 100 100 97 94 97 90 90 87 77 74 71 90 61 55 61 68 74 74 71 55
0 0 0 0 3 3 3 6 23 29 45 58 68 77 84 97 94 97 94 94 94 97 100 100 100 100 100 100 100 100 94 94 94 90 87 87 90 84 90 71 90 90 61 68 55 61 65 52 61
0 0 0 0 3 3 6 6 19 26 32 52 71 81 77 84 100 100 100 97 97 94 97 94 94 100 100 100 100 100 94 90 90 87 90 90 94 90 68 87 87 94 97 81 68 77 68 45 52
0 0 0 0 0 3 3 3 16 23 23 42 61 74 81 84 97 100 97 97 97 97 94 90 97 94 100 100 100 97 90 87 84 84 90 90 87 84 81 81 84 94 84 74 77 74 71 55 48
0 0 0 0 0 0 0 0 6 16 26 42 58 65 74 81 87 100 100 97 97 97 97 94 97 97 100 97 97 94 90 87 87 90 90 87 87 84 81 84 84 94 77 84 71 58 68 65 48
0 0 0 0 0 0 0 0 0 13 16 29 52 65 74 81 90 90 94 97 97 97 97 97 97 97 97 97 97 94 94 90 94 94 100 87 84 84 84 84 87 87 87 81 81 68 65 58 58
0 0 0 0 0 0 0 0 0 0 3 16 39 61 68 81 81 87 97 97 97 97 97 94 100 100 97 97 97 97 97 100 97 90 90 84 81 87 74 77 84 94 90 87 84 77 61 58 65
0 0 0 0 0 0 0 0 0 0 13 19 35 42 68 68 77 84 94 97 97 97 94 94 97 100 97 97 97 100 100 97 97 90 84 77 81 81 84 74 84 84 87 84 81 84 65 55 65
0 0 0 0 0 0 0 0 0 3 10 23 39 42 55 71 77 84 87 90 94 90 90 90 100 100 97 97 94 94 94 87 87 81 74 71 68 74 77 77 84 74 71 65 81 65 68 68 68
0 0 0 0 0 0 0 0 0 6 16 19 35 42 55 65 68 77 77 87 81 87 90 90 87 87 90 94 90 90 90 84 81 81 77 71 77 71 77 77 74 68 68 74 81 71 74 77 68
0 0 0 0 0 0 0 0 0 13 10 23 35 48 55 65 68 74 74 84 84 87 94 87 84 87 90 81 81 74 81 81 81 81 74 71 71 71 68 65 61 61 65 68 77 68 68 71 58
0 0 0 0 0 0 0 0 0 6 16 26 39 55 68 71 65 61 74 81 87 84 87 87 84 87 81 81 74 74 74 77 77 77 68 65 71 71 71 68 61 58 58 58 71 48 55 58 52
0 0 0 0 0 0 0 0 6 19 29 42 39 58 74 81 68 74 74 81 81 81 87 87 77 71 74 71 71 68 71 74 74 71 65 68 68 71 65 61 65 58 52 48 45 42 32 35 42

GEFSSGP_con_cape1000_192.txt.gz
Probability
3 13 19 39 52 26 0 0 0 0 3 0 3 6 6 10 10 10 23 35 35 45 61 87 97 94 94 97 97 94 94 97 97 97 94 97 100 97 97 100 100 100 97 94 90 94 94 90 90
10 16 32 35 32 0 0 0 0 0 6 10 3 3 10 10 6 16 23 35 42 48 68 77 97 97 94 94 94 94 90 97 97 97 97 94 97 100 100 100 100 97 90 90 90 94 94 90 87
10 23 26 32 3 0 0 0 0 0 0 6 10 6 10 10 13 16 23 39 58 65 74 94 97 94 94 94 97 94 94 94 97 94 97 97 100 97 97 100 97 97 97 90 90 90 90 90 87
19 19 16 3 0 0 0 0 0 0 0 3 10 6 10 13 23 26 29 48 58 74 81 94 94 94 94 94 94 94 94 97 97 94 97 100 97 100 100 100 97 90 90 90 94 90 90 87 77
10 3 3 0 0 0 0 0 0 3 6 3 13 10 19 23 19 23 26 48 55 65 81 90 94 94 94 94 94 97 94 97 94 94 97 94 90 97 100 100 87 90 94 94 94 94 90 81 71
6 0 0 0 0 0 0 0 0 0 6 3 13 19 23 26 16 16 23 52 68 61 81 90 94 94 94 94 94 97 97 97 97 97 97 94 94 94 100 87 87 87 94 94 94 94 77 68 65
0 0 0 0 0 0 0 0 0 0 0 0 10 19 26 23 23 23 32 48 65 61 81 90 90 94 94 94 94 94 97 94 97 97 97 94 94 90 97 90 87 90 94 94 90 81 74 58 52
0 0 0 0 0 0 0 0 0 0 0 0 13 26 39 32 32 26 35 48 61 68 81 84 90 94 87 90 97 97 97 97 97 97 97 94 90 90 87 94 94 90 94 94 90 84 81 71 55
0 0 0 3 3 0 0 0 0 0 0 0 13 35 48 29 32 26 45 52 74 71 81 81 94 94 90 81 90 97 97 97 97 94 94 94 84 74 84 77 90 87 90 87 84 84 74 71 55
0 0 0 3 3 0 0 0 0 0 3 16 32 45 48 39 32 42 45 48 71 81 81 81 84 90 87 87 94 97 94 94 94 97 97 94 94 84 74 90 94 84 84 77 77 87 87 68 45
0 0 0 0 0 0 0 0 0 0 6 23 48 61 52 58 61 61 65 74 81 77 81 84 87 90 87 90 97 97 94 97 94 97 97 97 87 77 77 77 87 87 81 81 84 84 74 58 61
0 0 0 0 0 0 0 0 0 0 13 32 48 58 58 65 65 65 71 77 81 77 81 81 87 90 97 94 94 97 94 94 97 97 97 97 97 90 84 87 84 87 87 87 81 87 74 71 55
0 0 0 0 0 0 0 0 0 3 19 39 58 65 71 68 74 77 74 81 84 87 87 94 94 90 94 94 94 97 97 94 94 94 94 94 90 97 87 97 97 87 87 87 84 87 81 74 68
0 0 0 0 0 0 0 0 3 10 26 48 61 65 71 71 71 81 84 87 87 87 87 94 94 100 100 97 94 97 97 97 94 94 87 87 94 97 97 90 100 97 94 90 87 81 81 74 81
0 0 0 0 0 0 0 0 3 10 32 45 61 68 68 71 77 81 87 90 87 90 94 97 97 100 100 100 97 94 97 90 90 90 90 90 97 100 100 97 97 94 90 87 87 77 87 81 68
0 0 0 0 0 0 0 0 10 13 29 45 58 65 71 81 77 87 90 90 90 94 100 97 94 97 100 100 100 100 94 90 100 100 94 90 94 97 100 94 100 97 94 94 94 94 84 87 81
0 0 0 0 0 0 0 0 6 16 23 52 61 65 74 84 84 90 84 90 94 100 100 100 100 100 100 100 100 100 97 97 97 100 94 90 87 87 97 97 100 97 94 87 74 87 87 90 87
0 0 0 0 0 0 0 3 6 16 29 39 48 71 81 84 90 94 94 94 100 100 100 100 100 100 100 97 97 97 97 97 97 97 94 90 90 84 97 97 100 94 97 94 90 87 90 94 87
0 0 0 0 0 0 0 6 6 16 23 35 48 71 81 94 94 94 94 94 100 100 100 100 100 100 97 97 94 94 97 90 90 87 90 90 90 90 94 90 97 100 97 97 87 87 87 84 87
0 0 0 0 0 0 0 6 6 10 19 35 48 58 71 84 97 97 100 97 100 100 100 97 100 100 97 97 97 97 97 94 90 90 84 90 90 90 84 97 97 100 100 94 90 94 87 84 87
0 0 0 0 0 0 0 0 6 6 13 26 39 55 61 84 94 97 97 97 100 100 100 97 97 100 100 100 100 94 94 90 87 84 87 90 94 90 94 94 90 97 97 97 94 94 87 87 84
0 0 0 0 0 0 0 0 10 6 10 19 32 45 71 77 90 100 100 100 100 100 97 100 100 100 97 100 100 94 94 94 87 81 84 87 90 87 87 87 90 90 87 100 97 87 87 87 74
0 0 0 0 0 0 0 0 0 6 13 19 29 39 58 81 81 100 100 100 97 97 97 100 100 100 100 100 100 94 97 90 90 87 84 81 84 87 81 87 84 94 90 100 94 94 87 74 68
0 0 0 0 0 0 0 0 0 0 6 13 32 35 61 68 77 94 100 100 100 97 97 97 100 100 100 100 100 100 97 94 90 84 90 84 81 84 81 81 81 90 87 97 97 97 84 81 68
0 0 0 0 0 0 0 0 3 3 6 6 26 29 52 65 77 94 97 100 97 97 100 100 97 97 97 100 100 97 97 94 90 84 87 84 81 81 77 74 84 84 90 94 94 90 81 74 74
0 0 0 0 0 0 0 0 3 6 10 10 16 29 48 65 74 90 90 94 97 97 97 100 100 100 100 100 100 97 97 90 90 90 84 81 81 81 74 81 81 84 81 81 87 71 81 74 71
0 0 0 0 0 0 0 0 3 10 3 13 16 32 42 58 68 87 87 90 97 94 97 97 100 100 100 97 90 87 84 87 87 90 90 87 77 74 77 77 77 74 71 71 81 71 77 71 58
0 0 0 0 10 0 0 0 3 10 6 10 23 32 42 55 61 74 81 81 94 94 94 94 97 94 94 90 90 84 81 84 87 84 87 74 77 81 77 71 65 71 65 58 71 68 74 65 61
0 0 0 0 0 0 0 0 3 10 6 10 26 35 52 52 65 71 81 77 84 90 94 94 90 87 87 87 90 84 87 87 84 81 77 74 74 77 68 65 58 58 52 48 52 61 58 55 52
0 0 0 0 10 0 0 3 6 6 13 16 35 55 65 65 74 74 81 81 87 90 90 90 87 87 87 87 87 81 81 81 84 77 74 74 74 68 61 52 52 42 45 48 48 52 45 45 45

GEFSSGP_con_cape1000_198.txt.gz
Probability
3 3 3 16 13 0 0 0 0 0 0 0 0 0 0 0 0 0 3 29 58 74 81 97 97 97 97 97 97 97 97 97 100 100 100 100 100 100 97 97 97 94 90 90 90 90 90 90 90
3 6 10 13 3 0 0 0 0 0 0 0 3 3 6 16 6 6 19 42 61 71 81 94 97 97 97 97 94 94 97 97 97 100 100 100 100 100 97 97 90 87 90 90 90 90 87 87 84
3 10 10 6 0 0 0 0 0 0 0 0 0 6 10 16 10 10 16 39 48 61 84 94 97 97 97 97 97 94 97 97 100 97 100 100 97 97 97 94 90 90 90 87 90 90 84 84 81
3 3 6 0 0 0 0 0 0 0 0 0 3 3 13 19 23 16 35 52 58 74 87 94 97 97 97 97 97 97 97 100 100 97 100 100 100 100 100 90 90 90 90 87 90 87 81 87 74
3 3 0 0 0 0 0 3 3 0 0 3 6 3 13 19 23 35 45 58 68 77 90 94 94 94 94 94 94 97 97 97 100 100 100 100 100 100 97 90 87 87 90 87 84 84 81 74 77
3 0 0 0 0 0 3 0 0 0 3 6 3 3 6 23 32 48 55 52 68 87 94 94 94 94 94 94 94 94 97 97 100 100 100 100 100 94 94 90 94 90 84 84 77 74 77 61 61
0 0 0 0 0 0 3 0 0 0 3 10 0 0 3 26 45 58 58 61 71 84 94 94 94 94 94 94 94 94 97 100 100 100 100 100 100 94 90 94 94 90 87 84 71 61 55 48 55
0 0 0 0 0 0 0 0 0 3 10 6 3 0 3 19 32 42 48 58 68 77 84 87 87 90 94 94 97 97 97 97 100 100 100 100 100 90 90 94 94 90 84 77 65 52 45 58 61
0 0 0 0 0 0 0 0 3 10 13 13 13 6 6 29 39 48 42 45 52 68 84 81 81 81 81 94 97 97 97 97 97 97 94 87 65 68 87 87 94 94 81 74 65 55 52 52 45
0 0 0 0 0 0 0 3 6 13 13 16 13 6 19 29 45 45 42 39 42 68 71 74 71 74 77 87 90 84 90 81 77 74 74 52 42 42 71 94 87 87 77 74 71 68 71 48 13
0 0 0 0 0 0 0 0 6 13 13 13 13 13 32 26 42 42 42 45 55 61 77 65 71 74 71 74 81 65 61 68 71 65 55 48 32 32 45 52 71 74 77 42 45 55 32 23 6
0 0 0 0 0 0 0 0 6 13 13 16 13 13 26 19 23 39 45 48 52 61 71 65 74 65 48 65 74 68 58 61 68 61 61 39 19 23 23 29 29 26 19 19 16 13 26 10 10
0 0 0 0 0 0 0 3 16 23 19 13 19 16 13 19 29 35 39 39 42 61 65 65 68 58 48 52 61 68 61 55 58 58 48 45 23 19 19 19 19 23 16 16 16 10 10 6 6
0 0 0 0 0 0 0 13 23 23 23 23 23 16 23 29 23 35 35 32 39 45 55 55 71 65 61 55 61 68 61 55 55 52 42 32 16 19 19 19 19 23 23 23 16 3 3 0 0
0 0 0 0 0 0 10 10 23 26 26 23 23 23 35 42 45 45 42 35 39 48 61 58 65 65 55 61 58 58 61 65 55 52 39 35 26 19 23 23 19 19 19 16 10 0 0 0 0
0 0 0 0 0 0 3 10 19 23 29 29 29 32 42 55 48 45 42 42 45 55 52 58 74 68 58 58 55 65 45 48 45 42 42 35 29 29 26 26 26 19 16 13 3 3 0 0 0
0 0 0 0 0 0 0 10 16 23 29 35 35 42 48 55 58 58 48 52 68 58 55 74 77 74 71 68 74 68 48 45 45 35 35 45 39 32 29 29 23 26 13 6 3 6 0 3 0
0 0 0 0 0 3 0 10 23 19 26 35 52 58 58 58 58 58 65 52 68 68 68 74 74 71 71 71 77 58 48 35 35 29 26 29 35 32 32 29 26 29 16 10 0 3 3 3 0
0 0 0 0 0 0 0 3 16 23 19 32 45 48 52 65 55 65 71 68 74 71 74 74 74 74 81 81 77 58 48 42 26 26 29 26 32 35 29 35 26 23 16 13 10 6 6 3 3
0 0 0 0 0 0 0 0 3 16 26 35 42 45 52 61 65 71 74 77 81 81 77 81 74 81 77 81 65 58 52 35 39 29 29 32 35 29 29 23 19 19 16 10 10 10 10 6 6
0 0 0 0 0 0 0 0 3 16 16 29 35 45 52 61 68 74 74 81 84 90 87 84 81 81 77 81 74 61 55 45 42 32 32 32 35 35 32 19 19 16 13 16 10 10 6 6 0
0 0 0 0 0 0 0 0 0 3 16 23 35 39 52 58 71 71 77 81 84 90 87 87 84 84 84 77 77 71 65 55 32 32 29 23 26 26 26 23 23 16 19 16 13 13 0 0 0
0 0 0 0 0 0 0 0 0 3 13 13 29 39 61 65 71 74 74 84 87 87 87 87 87 84 84 77 74 71 55 55 29 26 35 32 32 32 32 26 23 23 16 10 13 10 0 3 3
0 0 0 0 0 0 0 0 0 0 6 13 16 42 65 65 71 77 74 74 81 84 90 87 87 87 84 77 77 68 55 55 52 42 42 39 35 35 26 29 26 23 26 19 19 13 13 3 6
0 0 0 0 0 0 0 0 3 3 3 13 23 32 55 68 77 71 68 68 71 77 84 81 81 84 84 84 77 71 55 55 58 52 45 42 42 35 29 29 23 23 23 29 29 26 16 10 6
0 0 0 0 0 0 0 3 3 6 6 19 32 35 52 74 68 74 68 68 71 68 74 81 81 81 84 84 74 71 65 58 58 58 55 52 39 26 23 23 23 26 23 26 23 19 10 6 6
0 0 0 0 0 0 0 3 6 10 13 23 26 39 48 65 68 65 68 71 74 71 77 77 81 77 81 84 81 74 68 68 65 58 52 42 39 26 23 23 26 26 19 23 16 16 10 10 10
0 0 0 0 0 0 0 3 6 10 16 19 32 45 48 55 71 68 68 71 74 71 71 74 71 77 77 81 81 81 81 74 71 61 55 39 32 29 26 26 23 26 16 16 16 13 13 10 6
0 0 0 0 0 0 0 0 3 10 19 26 32 48 48 58 65 68 71 71 71 74 74 77 74 81 81 81 74 74 74 71 68 58 52 48 29 29 29 23 23 23 23 19 16 16 10 13 10
0 0 0 0 0 0 0 0 6 19 23 29 29 42 52 58 61 71 74 74 71 77 77 74 74 77 77 77 77 71 68 58 58 48 48 42 35 26 26 26 23 23 23 23 16 13 13 13 6

GEFSSGP_con_cape1000_204.txt.gz
Probability
13 10 3 6 0 0 0 0 0 0 0 0 0 0 0 0 0 0 0 26 48 65 77 90 94 87 87 94 97 97 94 97 97 97 97 97 97 97 97 94 94 94 94 94 94 94 97 97 90
3 3 3 0 0 0 0 0 0 0 0 0 0 0 0 6 6 10 23 48 58 65 68 77 97 94 90 94 97 97 97 97 97 97 97 97 97 97 94 94 97 97 94 94 90 87 87 87 90
3 3 0 0 0 0 0 0 0 0 0 0 6 3 3 10 13 10 23 55 52 65 74 97 97 97 97 97 97 97 97 94 94 94 94 97 97 97 97 94 97 97 94 87 90 90 87 87 90
0 0 0 0 0 0 0 0 0 0 0 0 6 6 6 10 16 23 42 58 48 68 84 97 97 97 97 97 97 97 97 97 94 97 97 97 97 97 94 90 94 94 90 90 94 90 87 94 87
0 0 0 0 0 0 0 0 0 0 0 3 6 6 10 16 19 29 42 52 58 74 90 94 97 97 97 97 97 97 97 94 94 100 100 100 97 94 90 90 87 87 87 87 94 87 87 90 84
0 0 0 0 0 0 0 0 0 0 3 3 0 0 10 16 29 35 35 52 61 77 87 90 97 97 94 94 97 97 97 97 97 100 97 97 94 90 87 87 81 81 81 84 81 77 71 81 84
0 0 0 0 0 0 0 0 0 0 3 3 3 0 16 26 29 32 39 58 71 84 81 84 87 94 94 94 97 97 97 97 100 100 97 97 94 94 87 84 77 81 81 74 68 65 58 65 71
0 0 0 0 0 0 0 0 0 0 0 3 6 6 10 32 29 29 48 61 71 77 81 81 81 84 87 87 97 97 97 97 100 100 97 97 94 87 87 87 84 77 74 74 61 58 55 58 65
0 0 0 0 0 0 0 0 0 0 3 3 6 3 16 29 26 42 52 68 71 74 74 71 81 81 84 87 90 90 97 94 97 97 97 87 61 71 81 87 84 81 68 55 58 58 55 61 65
0 0 0 0 0 0 0 0 0 0 6 6 13 26 42 39 35 32 35 45 61 71 74 71 71 77 77 87 77 74 81 74 65 65 45 39 35 48 74 94 94 71 71 65 68 74 55 32 19
0 0 0 0 0 0 0 3 3 6 10 6 16 32 42 39 32 19 26 32 39 55 74 71 68 65 71 68 68 68 65 65 58 58 32 29 29 26 35 52 58 39 45 26 29 29 19 16 10
0 0 0 0 0 0 0 0 10 3 3 6 19 32 42 26 19 13 16 26 29 42 61 65 58 55 55 58 61 55 61 48 55 42 35 23 19 16 13 19 32 26 23 13 16 10 6 10 6
0 0 0 0 0 0 3 6 13 13 10 10 26 35 32 26 23 13 10 19 26 35 42 48 58 55 48 35 48 52 45 42 35 29 29 23 19 16 16 19 13 16 13 10 6 6 10 6 3
0 0 0 0 0 3 3 6 16 13 6 16 29 29 32 35 26 19 23 23 29 32 29 35 45 42 39 29 29 35 35 32 29 26 26 23 19 16 16 13 16 16 13 6 6 10 6 0 3
0 0 0 0 0 3 3 6 16 13 13 19 23 26 26 29 29 29 29 32 29 29 29 32 29 26 29 29 29 35 26 29 32 26 29 26 19 13 13 13 16 13 13 6 3 3 0 0 0
0 0 0 0 0 0 6 6 13 13 16 16 19 26 26 19 23 26 26 32 32 23 19 32 48 35 26 29 29 23 32 23 26 26 23 26 16 10 10 13 13 10 10 6 6 0 0 0 0
0 0 0 0 0 0 0 6 13 16 19 16 19 19 26 19 16 29 26 32 32 35 26 35 35 32 26 29 19 19 26 26 23 19 19 23 23 19 19 19 16 10 6 3 0 0 0 0 0
0 0 0 0 0 0 0 3 10 16 16 19 19 13 19 23 19 26 29 42 32 32 32 35 26 23 19 19 13 23 19 19 16 16 13 23 23 19 16 23 16 16 6 3 0 0 0 0 0
0 0 0 0 0 0 0 3 10 10 16 16 16 16 13 10 13 16 23 32 39 39 39 32 26 23 16 26 26 23 23 16 16 10 10 19 19 23 16 19 13 13 13 10 10 3 6 6 0
0 0 0 0 0 0 0 0 6 10 16 16 16 16 13 10 16 26 19 32 39 39 32 32 29 23 19 29 26 23 13 16 13 10 16 13 13 16 23 13 13 13 13 6 6 6 6 3 0
0 0 0 0 0 0 0 0 3 3 16 19 16 16 13 13 19 32 35 45 48 45 39 39 32 32 26 19 16 16 13 13 26 23 16 16 16 19 16 10 13 13 13 6 6 6 3 0 0
0 0 0 0 0 0 0 0 0 3 13 23 23 19 19 13 26 29 45 42 48 48 42 35 29 29 39 26 32 29 23 23 16 13 16 13 23 26 19 10 10 10 6 0 0 0 0 0 0
0 0 0 0 0 0 0 0 0 0 13 13 23 26 26 26 32 42 39 42 42 42 39 42 45 35 42 32 39 35 29 16 6 6 19 13 13 16 16 13 10 6 6 0 3 0 0 0 0
0 0 0 0 0 0 0 0 0 0 3 6 19 26 26 26 42 42 42 39 39 42 55 48 45 42 35 39 35 32 42 23 23 16 19 13 6 10 10 10 6 6 6 6 3 0 0 0 0
0 0 0 0 0 0 0 0 0 3 6 6 16 16 19 29 35 32 45 45 48 52 58 55 52 48 55 39 42 45 39 32 26 16 19 13 10 10 10 10 6 6 6 6 6 3 3 0 0
0 0 0 0 0 0 0 0 0 10 13 13 16 16 16 26 29 32 48 48 61 61 61 58 52 55 61 55 48 45 35 29 23 23 16 19 13 16 13 6 10 10 13 19 16 13 10 6 3
0 0 0 0 0 0 0 0 3 13 13 19 19 16 23 16 26 35 45 55 65 61 65 65 65 58 58 68 58 45 42 35 32 19 23 16 13 19 23 23 16 16 16 13 13 13 10 10 6
0 0 0 0 0 0 0 0 0 16 16 26 29 32 26 23 26 39 55 52 58 58 65 68 65 68 61 61 55 58 48 39 45 42 26 23 39 26 26 26 23 19 16 16 16 10 13 10 6
0 0 0 0 0 0 0 0 0 6 19 26 29 39 32 35 39 39 45 48 55 58 65 65 68 68 65 58 55 58 48 45 42 35 32 35 32 29 26 23 19 16 16 16 13 10 10 10 6
0 0 0 0 0 0 0 0 3 10 16 26 35 42 35 32 32 35 48 45 58 61 65 65 61 65 65 61 55 48 55 42 32 32 39 39 35 26 23 19 16 19 19 19 13 10 10 6 6

GEFSSGP_con_cape1000_210.txt.gz
Probability
6 16 19 19 6 0 0 0 0 0 0 0 0 0 0 0 3 6 6 10 13 32 55 84 87 90 94 90 94 90 90 94 90 90 94 94 90 90 97 97 97 97 97 97 94 94 97 94 87
13 16 16 10 0 0 0 0 0 0 0 0 6 3 3 13 10 6 10 13 26 35 55 71 87 87 94 97 97 97 94 94 94 94 97 94 90 97 97 97 97 97 90 90 90 94 90 87 87
13 10 16 0 0 0 0 0 0 0 3 6 3 3 3 6 6 13 23 16 32 48 61 81 94 90 94 97 94 94 94 94 94 94 94 97 97 94 94 97 97 97 90 94 94 90 87 90 90
6 13 3 0 0 0 0 0 0 0 0 0 0 0 6 10 13 23 19 19 26 45 58 87 97 97 97 97 97 90 94 90 90 94 94 94 94 94 97 97 94 94 97 94 94 94 87 94 94
3 0 0 0 0 0 0 0 0 0 3 0 0 3 13 29 26 26 23 23 23 45 58 74 97 97 97 97 97 94 94 94 90 90 94 94 90 90 87 90 94 94 94 90 87 90 84 84 87
6 0 0 0 0 0 0 0 0 0 0 0 3 0 26 26 23 26 19 23 19 42 58 81 97 97 97 97 97 97 94 97 94 94 94 87 87 84 87 90 94 90 87 87 87 84 84 77 77
3 0 0 0 0 0 0 0 0 0 0 0 0 6 19 26 23 16 26 23 29 45 65 74 74 87 94 94 97 97 97 97 94 90 90 90 87 87 94 94 94 87 81 71 77 61 58 65 68
3 0 0 0 0 0 0 0 0 0 0 0 0 3 16 32 19 29 26 32 45 52 58 71 81 84 81 87 94 94 97 97 94 94 90 87 87 87 87 90 90 84 77 71 65 61 45 58 68
0 0 0 0 0 0 0 0 0 0 0 3 6 10 16 26 16 29 39 39 42 48 68 74 77 77 71 71 84 90 94 97 97 90 87 87 77 68 84 81 81 77 77 68 58 55 55 61 61
0 0 0 0 0 0 0 0 0 0 0 6 16 29 35 35 26 39 42 35 45 48 61 65 71 68 65 71 84 84 74 94 90 90 81 90 87 84 71 84 71 68 65 68 68 52 45 42 48
0 0 0 0 0 0 0 0 0 0 0 0 19 39 39 32 39 42 29 35 52 52 61 68 74 71 68 74 81 77 71 84 81 81 84 87 74 77 71 74 77 71 52 48 48 39 26 16 32
0 0 0 0 0 0 0 0 0 0 3 6 23 39 39 48 42 45 42 42 48 48 52 61 74 77 77 77 71 71 68 71 68 77 77 74 61 77 74 81 61 45 55 68 35 52 29 23 26
0 0 0 0 0 0 0 0 3 3 10 16 39 39 35 35 45 52 52 45 45 58 61 77 84 84 84 90 84 65 77 65 71 81 77 71 58 68 65 74 71 48 45 29 42 32 48 35 26
0 0 0 0 0 0 0 0 3 16 26 42 45 45 35 32 48 48 48 55 58 55 65 81 81 87 87 90 87 81 74 90 71 81 74 81 65 68 71 71 68 55 45 42 42 39 48 45 39
0 0 0 0 3 3 3 0 0 26 35 48 48 39 45 48 55 58 55 61 58 61 61 84 84 87 94 94 87 81 81 74 84 84 77 81 84 87 71 68 58 55 55 52 55 45 35 35 32
0 0 0 0 0 0 3 0 13 26 39 52 48 45 55 74 68 61 58 61 65 61 71 84 68 87 94 94 94 87 74 77 87 84 81 77 81 81 87 68 58 65 55 61 65 58 52 42 35
0 0 0 0 0 0 0 6 29 35 42 45 55 52 65 71 77 77 74 68 68 74 81 84 84 87 94 94 94 90 90 87 84 84 74 81 84 81 81 81 71 77 65 65 58 61 61 48 61
0 0 0 0 0 0 0 3 39 42 35 42 52 55 58 71 74 74 77 77 84 81 87 87 90 97 94 90 87 87 87 84 87 84 87 84 90 87 81 87 90 68 71 81 74 74 84 71 77
0 0 0 0 0 0 3 3 32 32 42 39 45 61 58 61 65 77 77 77 84 87 90 94 94 97 97 90 84 87 77 81 87 84 90 90 87 81 87 77 94 87 87 87 71 65 65 61 65
0 0 0 0 0 0 3 6 13 32 39 42 42 52 55 58 77 81 81 81 87 90 94 94 90 94 94 97 97 94 84 77 84 81 84 87 81 84 81 90 87 84 90 94 87 90 74 65 61
0 0 0 0 3 0 0 6 13 26 39 39 48 61 61 58 81 87 81 84 84 87 87 84 97 97 90 90 87 90 90 87 81 87 87 87 87 84 84 87 77 81 77 81 84 87 81 68 61
0 0 0 0 0 0 0 0 6 16 32 55 58 68 65 61 77 87 94 90 84 90 87 97 100 97 97 90 90 84 87 81 84 90 90 90 90 84 81 81 84 84 77 87 77 61 77 81 61
0 0 0 0 0 0 0 0 3 13 19 32 58 55 65 74 77 87 90 94 87 90 90 90 94 94 97 94 94 97 84 81 77 87 90 94 87 84 81 81 84 84 81 77 71 77 74 68 65
0 0 0 0 0 0 0 0 3 3 19 23 35 45 58 65 77 87 90 94 94 87 87 87 90 90 94 94 90 94 94 94 84 87 84 84 87 84 81 71 81 74 77 71 74 77 74 65 68
0 0 0 0 0 0 0 0 3 13 16 19 26 39 45 48 77 87 87 84 90 90 90 87 87 87 87 87 87 87 84 87 87 87 87 84 71 71 81 68 68 68 68 65 65 65 71 65 55
0 0 0 0 0 0 0 0 6 16 19 23 39 32 35 45 65 81 81 81 87 87 87 87 87 87 87 87 87 81 81 81 81 84 84 84 74 71 65 61 58 65 68 65 65 61 52 58 52
0 0 0 0 0 0 0 3 6 13 19 29 32 32 35 35 55 65 71 77 84 77 84 87 87 87 87 84 84 81 77 81 81 81 81 77 74 65 65 61 65 68 68 68 61 58 55 55 55
0 0 0 0 0 0 0 0 3 13 23 29 39 39 48 48 58 58 71 74 77 77 81 77 84 84 84 77 77 81 81 77 77 74 71 71 68 61 65 61 61 58 61 61 55 58 58 55 45
0 0 0 0 0 0 0 0 3 19 32 39 39 45 55 55 55 61 65 71 71 71 74 77 81 84 77 77 77 77 77 74 68 68 65 58 61 61 55 55 55 55 55 48 45 42 45 45 45
0 0 0 0 0 0 0 0 6 26 32 42 39 52 65 68 65 61 61 68 71 71 74 77 77 77 77 74 77 77 71 68 68 65 61 55 52 52 52 52 52 52 48 45 45 42 39 39 39

GEFSSGP_con_cape1000_216.txt.gz
Probability
3 13 19 48 39 10 0 0 0 0 0 0 0 0 3 3 0 3 13 29 23 29 61 77 87 87 87 87 87 87 90 90 87 90 100 100 100 94 94 97 97 94 94 94 90 94 94 87 90
10 16 29 32 16 0 0 0 0 0 3 3 3 6 3 0 6 10 19 32 29 48 55 77 90 90 87 87 87 90 90 90 87 94 97 94 97 97 97 97 97 87 90 94 90 90 87 81 84
10 19 29 13 3 0 0 0 0 0 0 0 0 3 3 0 3 13 35 42 48 61 71 81 90 90 90 94 94 90 90 90 94 94 94 94 94 94 97 94 90 90 90 87 90 90 77 81 74
13 19 13 3 0 0 0 0 0 0 0 0 0 0 3 10 13 19 39 42 45 58 65 81 90 90 94 94 94 94 94 94 94 94 90 94 94 94 94 97 97 87 87 84 87 87 84 84 74
19 10 3 0 0 0 0 0 0 0 0 6 6 6 10 13 10 23 35 42 48 48 71 81 97 97 94 90 94 94 94 94 94 90 90 94 94 94 84 84 81 81 84 81 84 90 90 74 55
10 3 0 0 0 0 0 0 0 3 3 6 6 6 10 13 19 29 32 35 45 45 61 84 94 94 94 87 90 90 94 90 94 94 87 87 87 87 87 84 81 77 77 84 81 81 71 65 48
0 0 0 0 0 0 0 0 0 0 0 0 6 6 3 13 16 29 39 45 42 42 61 74 84 87 94 90 87 90 90 94 90 90 81 77 81 84 84 81 84 74 81 71 65 61 55 45 35
0 0 0 0 0 0 0 0 0 0 0 0 0 10 10 10 16 26 39 42 48 58 61 71 74 84 81 81 94 94 94 90 87 87 87 81 77 81 87 81 84 71 68 58 58 48 42 35 42
0 0 0 0 0 0 0 0 0 0 0 6 10 16 10 6 13 26 32 48 58 61 65 71 65 74 71 71 74 90 94 87 84 87 84 84 87 74 81 74 81 58 55 55 52 48 55 58 48
0 0 0 0 0 0 0 0 0 0 6 6 13 13 10 13 16 32 35 42 52 58 58 65 65 65 65 71 84 81 74 94 97 94 90 94 97 90 58 77 77 68 58 58 61 71 55 52 35
0 0 0 0 0 0 0 0 0 0 6 6 13 13 13 16 16 26 39 45 68 65 68 71 74 87 68 81 90 90 94 97 97 90 90 94 90 81 81 71 74 81 71 68 68 68 55 42 45
0 0 0 0 0 0 0 0 0 0 6 6 10 16 19 16 16 16 42 52 58 68 61 68 74 84 90 90 90 84 84 90 87 90 94 90 97 94 81 90 87 90 87 87 81 84 71 61 48
0 0 0 0 0 0 0 0 0 3 3 10 6 13 19 19 26 29 26 48 65 74 74 77 87 90 94 94 94 84 84 84 90 90 94 97 97 97 100 97 97 87 87 87 90 84 81 74 65
0 0 0 0 0 0 0 0 0 3 10 19 13 16 13 32 35 32 35 58 61 61 74 81 90 97 97 94 94 94 94 90 87 90 94 94 100 97 94 100 97 94 84 84 84 87 87 87 84
0 0 0 0 0 0 0 0 0 3 6 26 23 19 23 32 35 45 58 71 61 68 84 94 90 97 94 94 97 87 87 84 94 97 90 94 94 94 94 94 97 94 90 84 90 87 84 84 81
0 0 0 0 0 0 0 0 0 0 6 23 29 26 32 39 39 52 61 77 81 90 97 94 87 94 94 97 94 87 87 90 94 94 94 94 90 90 94 94 90 94 90 100 97 94 90 84 87
0 0 0 0 0 0 0 0 0 0 10 26 29 26 35 48 48 65 61 74 81 94 97 97 87 94 97 97 94 94 90 90 94 97 97 90 87 87 94 94 94 90 90 94 87 94 94 90 97
0 0 0 0 0 0 0 0 3 3 10 26 35 39 48 65 68 74 81 81 84 94 97 97 94 94 97 97 94 90 94 97 94 97 100 90 90 90 90 94 90 90 94 94 97 97 100 90 90
0 0 0 0 0 0 0 3 3 3 6 26 32 42 65 68 71 74 81 77 84 94 97 97 97 97 97 97 97 94 97 97 94 100 100 97 97 90 94 94 90 90 94 94 84 90 84 87 100
0 0 0 0 0 0 0 3 13 10 6 16 26 48 55 71 81 90 87 90 87 94 97 97 97 97 97 97 97 100 97 94 94 94 100 100 100 94 87 94 90 90 90 84 77 77 84 87 87
0 0 0 0 0 0 0 3 16 23 16 19 26 32 52 74 81 90 87 94 97 100 94 87 100 97 97 97 100 100 100 97 90 94 97 100 100 97 100 90 90 90 90 84 87 77 74 68 77
0 0 0 0 0 0 0 3 6 16 26 29 23 35 42 68 81 90 87 94 97 97 97 100 100 100 100 100 97 100 100 97 97 97 97 100 100 90 94 84 87 90 81 77 74 68 74 71 61
0 0 0 0 0 0 0 0 3 6 19 26 39 45 39 52 77 87 87 90 90 94 97 100 100 100 100 100 100 97 100 100 97 94 94 97 94 87 90 90 87 84 77 71 68 74 68 74 61
0 0 0 0 0 0 0 0 3 3 16 19 29 42 48 61 68 84 87 94 94 90 90 90 94 94 97 97 97 97 100 100 97 97 97 94 87 87 87 81 74 77 71 71 65 68 68 58 61
0 0 0 0 0 0 0 0 6 13 13 16 26 32 45 52 68 81 87 87 90 90 87 87 87 87 87 87 87 94 94 90 81 84 81 84 84 84 84 77 74 74 74 68 65 71 58 58 58
0 0 0 0 0 0 0 0 16 19 16 16 16 19 35 48 58 68 74 87 87 87 87 84 87 87 87 87 87 87 81 81 77 77 77 81 81 81 77 74 74 74 71 61 58 61 58 61 58
0 0 0 0 0 0 0 10 13 16 23 16 16 19 26 29 52 61 65 77 81 87 87 84 87 87 84 87 87 84 81 81 74 74 74 68 74 68 74 71 68 71 68 65 61 55 58 55 48
0 0 0 0 0 0 0 6 6 19 19 19 19 19 23 35 48 61 71 77 84 84 84 84 87 84 87 84 84 77 77 74 74 68 68 65 68 68 71 68 65 61 61 58 61 58 55 48 48
0 0 0 0 3 0 0 3 13 23 26 29 26 29 32 32 42 52 74 74 81 77 81 84 87 87 84 81 77 77 77 74 71 65 65 65 61 61 65 58 58 61 58 55 55 55 55 48 45
0 0 0 0 13 3 0 3 6 19 26 39 32 35 42 52 48 48 65 71 74 81 81 87 84 81 81 81 77 77 74 74 65 61 61 58 61 58 55 58 61 55 52 52 52 52 52 45 45

GEFSSGP_con_cape1000_222.txt.gz
Probability
10 10 6 13 3 0 0 0 0 0 0 0 0 0 0 0 0 0 6 32 48 71 74 84 90 90 90 90 90 94 94 94 94 94 94 94 97 100 100 97 94 94 84 87 84 87 90 87 90
3 3 13 6 0 0 0 0 0 0 0 0 0 0 0 10 10 10 16 32 52 61 65 84 90 90 94 94 90 97 94 94 94 94 94 90 94 97 100 100 100 97 94 94 90 77 87 84 81
3 3 10 6 0 0 0 0 0 0 0 0 0 0 0 6 10 10 19 39 48 58 68 84 94 90 90 90 94 97 97 97 97 97 97 94 94 94 97 97 97 97 87 87 81 74 77 74 74
6 6 3 0 0 0 0 0 0 0 3 0 0 0 3 3 19 19 29 39 52 61 74 90 94 94 94 94 94 97 97 97 97 97 94 94 94 90 90 90 87 87 90 87 77 77 65 65 55
3 0 3 0 0 0 0 0 0 0 0 0 0 3 3 16 23 32 35 42 55 58 71 81 90 94 94 94 94 97 97 97 97 97 94 94 90 84 84 81 81 84 87 81 81 65 65 45 45
6 0 0 0 0 0 0 0 0 0 0 0 6 3 6 26 26 35 39 29 52 65 71 84 94 90 90 90 94 94 97 97 97 94 94 94 94 90 87 84 84 84 87 77 74 61 52 45 52
3 0 0 0 0 0 0 0 0 0 0 3 0 3 6 16 19 26 19 26 52 68 71 71 81 87 90 90 94 94 94 94 97 94 94 90 90 90 90 90 84 77 84 68 61 48 48 48 61
3 0 0 0 0 0 0 0 0 0 0 0 0 0 10 13 23 19 19 32 48 65 71 74 74 77 84 84 90 90 90 94 94 90 90 90 87 87 87 94 87 71 65 48 55 55 52 58 65
3 0 0 0 3 0 0 0 0 0 0 0 0 3 6 10 16 16 16 29 35 45 48 68 61 65 68 77 81 84 84 90 84 84 90 84 42 52 77 77 81 74 68 55 55 52 48 55 58
0 0 0 0 0 0 0 3 3 3 0 6 6 3 10 13 16 19 16 26 32 35 29 35 48 52 52 68 77 71 71 65 68 52 58 45 23 26 55 74 81 74 74 65 58 61 61 45 13
0 0 0 0 0 0 0 3 6 6 3 3 6 6 13 13 16 16 19 23 32 35 35 35 45 32 32 39 42 52 45 42 32 52 42 32 19 13 23 19 55 52 52 35 32 42 23 13 3
0 0 0 0 0 0 0 3 6 6 6 3 3 10 10 10 13 19 23 23 19 29 42 26 29 26 26 42 45 35 35 35 32 39 39 26 23 10 13 13 16 16 19 3 6 10 16 6 0
0 0 0 0 0 0 3 3 10 6 10 6 6 3 6 10 13 16 26 26 29 23 26 26 32 35 32 32 32 39 42 39 35 35 35 32 23 19 10 10 10 16 6 10 6 6 6 3 3
0 0 0 0 0 0 6 6 6 10 3 3 3 3 3 10 13 23 19 26 23 19 26 29 39 39 32 35 35 29 35 32 42 35 35 32 29 19 13 13 10 13 19 10 3 3 6 6 6
0 0 0 0 0 0 3 6 6 10 3 3 6 3 3 6 13 19 19 23 23 23 23 26 32 35 32 39 35 32 32 29 29 29 32 29 26 23 16 13 10 19 13 6 3 3 6 10 10
0 0 0 0 0 0 3 3 10 10 6 3 3 3 6 6 13 13 19 19 26 29 29 32 55 35 45 32 45 42 32 35 32 29 39 42 23 16 16 23 13 16 16 10 6 3 3 6 6
0 0 0 0 0 0 0 3 10 6 6 6 6 10 16 13 16 13 13 19 26 23 23 29 35 45 45 48 52 45 29 42 39 39 35 35 35 32 29 19 16 16 13 6 10 6 3 3 3
0 0 0 0 0 0 0 3 6 6 3 6 13 13 16 26 26 26 16 23 23 26 26 35 45 42 42 45 39 42 32 32 39 35 39 35 35 35 19 16 19 16 13 10 3 3 0 3 3
0 0 0 0 0 0 3 3 6 10 6 10 13 13 26 32 32 39 39 35 35 35 45 45 48 35 42 52 45 45 35 26 35 39 39 29 26 35 32 32 23 16 13 6 6 6 0 0 0
0 0 0 0 0 0 6 3 3 10 10 10 16 13 26 35 35 48 45 52 42 42 48 52 52 45 45 48 42 45 35 35 35 35 32 35 32 32 42 23 13 10 6 3 0 3 0 0 0
0 0 0 0 0 0 0 0 3 6 16 16 23 26 23 32 32 39 52 52 48 55 45 52 48 55 45 45 45 55 52 48 48 48 42 42 42 42 35 23 13 6 6 3 0 3 6 3 0
0 0 0 0 0 0 0 0 0 3 16 19 19 26 29 29 32 42 55 61 52 52 52 52 48 52 55 52 48 55 52 55 48 48 45 42 39 35 35 19 13 13 10 3 6 3 6 3 6
0 0 0 0 0 0 0 0 3 3 13 16 19 29 29 26 26 42 58 61 61 48 55 52 52 55 55 65 61 52 55 45 45 55 48 39 35 39 29 35 29 6 10 13 6 13 13 10 10
0 0 0 0 0 0 0 0 3 3 6 10 13 26 29 32 35 42 52 55 65 61 58 52 58 55 55 58 58 61 58 52 52 55 52 42 39 39 35 32 26 26 19 19 13 13 16 16 13
0 0 0 0 0 0 0 0 0 6 10 10 19 23 26 29 35 45 58 58 55 61 65 58 52 65 65 68 68 58 55 55 58 55 52 42 39 42 39 39 29 16 23 19 23 19 19 16 13
0 0 0 0 0 0 0 3 6 13 13 16 16 19 26 39 42 48 58 55 55 61 58 58 58 65 74 71 61 58 58 58 55 55 52 48 42 35 29 26 32 23 23 32 23 23 19 16 13
0 0 0 0 0 0 0 10 13 16 16 23 23 26 29 39 45 52 55 55 52 58 55 52 58 68 74 61 65 61 58 55 55 52 48 52 45 39 32 26 29 32 29 29 29 29 26 23 13
0 0 0 0 0 0 0 6 10 16 16 19 26 23 26 39 42 39 42 48 52 58 61 65 58 58 65 65 58 52 52 55 48 58 55 39 45 39 29 26 23 26 29 29 19 26 23 19 16
0 0 0 0 0 0 0 0 6 16 16 23 29 26 35 35 45 42 45 48 55 55 58 61 58 55 58 61 55 58 61 55 52 48 48 35 35 29 26 26 23 26 26 23 23 23 23 26 23
0 0 0 0 0 0 0 0 3 19 19 29 32 29 39 42 45 45 48 52 61 55 52 58 55 52 55 55 55 55 52 52 45 45 35 32 32 29 29 26 23 23 23 19 19 23 23 19 13

GEFSSGP_con_cape1000_228.txt.gz
Probability
19 6 0 0 0 0 0 0 0 0 0 0 0 0 0 0 0 0 0 3 32 52 65 84 90 94 94 87 87 87 90 87 87 87 87 87 87 87 84 84 84 84 81 81 87 94 87 87 81
3 6 0 0 0 0 0 0 0 0 0 0 0 0 0 0 6 3 6 32 48 55 55 77 87 90 90 87 90 87 87 87 90 90 90 94 90 87 87 84 77 77 74 77 74 77 77 71 81
6 0 0 0 0 0 0 0 0 0 0 0 0 0 3 3 6 13 13 39 48 42 52 77 87 90 90 90 94 94 90 90 90 90 87 87 90 97 90 90 84 84 87 77 71 65 71 68 68
3 0 0 0 0 0 0 0 0 0 0 0 0 0 3 3 10 16 32 39 42 45 65 81 90 94 94 90 94 94 94 90 90 90 90 87 87 94 90 90 94 90 77 71 68 68 65 65 68
0 0 0 0 0 0 0 0 0 0 0 0 0 3 3 13 23 32 32 42 42 55 68 81 87 90 90 94 97 97 97 97 90 90 90 90 87 87 87 84 81 84 90 81 68 61 65 55 61
0 0 0 0 0 0 0 0 0 0 0 3 3 6 6 16 26 29 39 42 52 55 68 81 84 90 87 90 94 94 97 94 94 94 94 97 90 87 84 84 84 84 81 77 68 45 45 48 61
0 0 0 0 0 0 0 0 0 0 0 3 6 3 10 16 23 26 35 42 52 58 65 77 84 84 87 87 90 94 97 94 94 90 90 90 90 87 84 84 84 71 74 65 65 45 42 42 58
0 0 0 0 0 0 0 0 0 0 0 3 6 3 3 13 23 19 32 42 48 55 65 61 68 74 71 84 94 94 94 94 94 90 87 87 84 81 81 81 81 65 61 58 61 48 52 55 61
0 0 0 0 0 0 0 0 0 0 0 3 3 6 10 16 19 19 26 32 42 45 45 42 52 55 68 68 81 74 81 87 81 77 81 71 23 29 58 71 77 65 65 68 61 52 58 55 52
0 0 0 0 0 0 0 0 0 0 0 3 6 13 16 16 13 13 16 16 29 35 32 26 29 39 48 65 55 52 52 48 35 29 29 26 16 19 39 68 71 61 52 48 52 58 42 26 23
0 0 0 0 0 0 0 0 0 0 0 3 6 13 16 13 10 10 10 16 10 16 26 26 23 26 26 23 35 23 16 16 19 23 16 16 6 13 10 10 13 10 26 19 13 16 16 13 10
0 0 0 0 0 0 0 0 0 0 0 3 6 10 10 10 10 10 6 13 16 13 13 10 16 19 16 19 23 19 16 13 16 16 13 10 10 3 0 3 10 3 0 3 3 3 6 6 6
0 0 0 0 0 0 0 0 3 0 3 3 3 6 10 10 13 10 3 10 6 6 6 13 13 16 13 10 16 29 13 13 16 16 16 13 10 6 3 6 3 3 6 6 6 3 6 6 10
0 0 0 0 0 0 0 3 3 0 3 3 3 6 10 6 10 6 13 10 6 6 10 10 10 10 10 10 16 16 16 19 19 13 13 19 10 6 6 6 3 3 6 3 3 0 0 3 10
0 0 3 3 3 0 0 0 0 0 3 3 3 3 6 6 6 13 13 13 16 16 13 10 6 3 6 6 6 16 16 16 19 16 16 16 13 10 6 6 6 3 3 0 3 0 0 3 3
0 0 0 0 0 0 0 0 0 0 6 6 3 6 6 6 6 13 19 16 16 16 6 10 32 10 10 13 10 10 13 13 10 13 16 13 13 10 6 6 3 6 0 3 0 0 0 0 0
0 0 0 0 0 0 0 0 3 0 6 6 6 10 10 10 6 10 13 10 13 6 3 10 16 10 6 10 10 10 6 19 16 16 23 19 16 10 6 6 0 0 0 0 0 0 0 0 0
0 0 0 0 0 0 0 3 6 3 3 6 6 10 10 6 10 10 6 13 16 3 6 6 10 3 10 10 13 13 10 10 13 16 19 26 16 16 6 6 3 0 0 0 0 0 0 0 0
0 0 0 0 0 0 3 3 6 6 6 6 6 6 10 13 10 13 6 16 16 16 10 6 3 6 6 6 10 10 10 10 13 10 13 19 16 13 10 6 3 0 0 0 0 0 0 0 0
0 0 0 0 3 3 3 3 3 10 6 6 6 6 6 13 13 19 10 13 19 13 10 6 6 6 10 16 13 10 13 13 13 16 10 13 13 10 3 3 3 0 0 0 0 0 0 0 0
0 0 0 0 3 3 3 3 6 13 13 10 3 3 10 10 13 19 13 16 19 10 3 10 10 10 10 13 13 13 6 6 13 10 10 10 13 6 10 3 6 0 0 0 0 0 0 3 0
0 0 0 0 0 0 0 0 3 6 10 10 13 6 6 6 13 10 16 16 16 6 10 10 10 10 10 13 16 13 10 10 6 10 6 3 19 19 10 6 10 6 3 0 0 0 0 6 6
0 0 0 0 0 0 0 0 3 3 6 13 16 13 10 10 13 13 19 19 10 10 6 10 10 10 10 10 13 10 13 10 6 3 6 6 10 13 19 13 10 16 10 0 0 3 6 6 6
0 0 0 0 0 0 0 0 0 0 3 6 16 19 13 13 13 13 13 13 16 10 10 13 6 13 10 13 13 13 19 19 10 6 10 13 16 19 19 26 13 10 3 10 3 3 6 10 10
0 0 0 0 0 0 0 0 0 3 6 13 19 19 13 13 16 19 13 16 19 16 16 13 16 19 19 16 16 13 16 16 16 10 10 13 23 26 23 26 13 13 10 10 6 13 16 10 6
0 0 0 0 0 0 0 3 3 6 13 13 19 19 19 16 10 16 13 19 23 16 19 26 26 29 29 23 19 19 19 19 13 13 19 19 26 29 23 16 10 10 10 13 16 13 19 19 10
0 0 0 0 0 0 0 3 6 13 13 13 16 16 19 19 23 19 19 26 29 19 23 23 29 26 29 26 19 19 23 19 23 19 23 29 29 26 13 10 10 10 10 13 13 13 13 13 10
0 0 0 0 0 0 0 0 0 10 13 19 19 19 23 23 19 16 26 29 29 29 29 29 29 23 23 35 26 29 23 23 23 26 29 29 23 23 19 10 10 10 10 16 16 13 13 10 13
0 0 0 0 0 0 0 0 0 0 13 23 23 23 23 16 13 13 19 29 32 29 29 35 29 23 23 29 29 29 32 29 29 29 29 26 23 16 16 16 13 13 16 16 16 13 13 13 13
0 0 0 0 0 0 0 0 0 6 13 26 23 26 23 10 10 19 23 26 29 26 29 35 29 29 32 32 32 32 32 32 29 26 23 23 23 19 16 16 19 19 19 16 16 13 13 13 13

GEFSSGP_con_cape1000_234.txt.gz
Probability
39 29 35 16 6 0 0 0 0 0 0 0 0 0 0 0 0 0 3 13 26 29 35 68 84 84 87 81 81 87 84 84 84 81 77 81 77 81 77 77 81 77 81 81 81 81 84 84 77
26 19 16 6 0 0 0 0 0 0 0 0 0 0 0 0 0 0 6 23 32 35 48 68 84 87 84 87 84 87 84 81 84 84 84 81 84 84 84 74 81 74 77 68 74 74 74 74 71
13 13 6 0 0 0 0 0 0 0 0 0 0 0 0 0 0 3 6 29 39 42 55 77 87 84 90 90 90 87 84 81 84 84 81 81 90 87 84 84 81 77 68 71 77 77 74 65 68
13 10 3 0 0 0 0 0 0 0 0 0 0 0 0 3 3 3 13 23 23 39 52 74 87 84 87 90 90 90 90 84 84 84 77 81 84 87 87 87 84 74 68 71 77 74 74 74 65
6 6 0 0 0 0 0 0 0 0 0 0 0 0 6 10 3 6 16 16 19 39 48 61 77 84 90 90 84 87 90 94 90 87 84 81 87 84 87 84 81 81 68 71 68 65 68 65 58
6 0 0 0 0 0 0 0 0 0 0 0 0 0 10 13 3 3 13 23 26 35 45 65 77 81 87 90 90 90 84 87 90 90 87 84 87 90 84 84 84 87 65 61 55 55 58 48 55
3 0 0 0 0 0 0 0 0 0 0 0 0 0 13 13 13 10 16 19 26 42 45 55 61 81 84 84 87 90 87 84 84 84 84 94 87 87 87 87 74 68 68 61 55 55 52 55 52
3 0 0 0 0 0 0 0 0 0 0 0 0 0 0 23 13 16 19 35 32 39 42 52 71 77 65 68 84 84 87 87 81 81 84 74 81 68 65 77 71 65 55 52 48 45 42 55 55
3 0 0 0 0 0 0 0 0 0 3 6 6 3 10 23 23 23 19 29 32 35 52 52 52 65 68 55 77 81 87 84 84 77 74 68 39 29 48 45 68 71 58 52 55 48 42 45 55
0 0 0 0 0 0 0 0 0 0 0 6 13 16 23 29 26 19 23 19 29 35 48 55 55 58 58 48 81 77 74 81 77 71 55 45 65 58 32 58 65 68 58 55 55 48 35 32 26
0 0 0 0 0 0 0 0 0 0 0 3 3 13 23 23 26 35 32 35 35 35 29 45 55 61 52 74 65 71 74 81 74 68 65 74 52 48 42 35 55 55 39 45 52 39 32 23 26
0 0 0 0 0 0 0 0 0 0 3 3 3 13 19 19 29 32 35 39 42 42 39 48 61 84 71 65 65 65 52 55 55 77 61 61 65 65 55 61 39 35 48 45 29 45 32 26 23
0 0 0 0 0 0 0 3 3 3 3 6 13 19 13 13 23 26 29 42 45 48 48 58 65 81 81 77 68 55 52 42 55 71 68 61 55 52 45 65 45 32 35 32 45 42 52 39 32
0 0 0 0 0 3 3 3 3 6 6 13 23 19 19 19 26 29 32 45 48 45 52 61 71 84 90 87 87 61 55 77 58 61 65 68 68 58 55 68 61 48 48 45 52 45 52 45 42
0 0 0 0 0 3 3 3 3 6 6 16 13 19 23 26 39 45 45 45 39 45 52 65 68 77 87 84 71 61 55 55 55 61 68 74 68 74 71 61 68 55 52 58 65 42 45 52 45
0 0 0 0 3 6 3 0 6 13 10 19 10 13 23 35 39 45 48 55 52 58 68 68 55 68 84 87 87 74 68 68 68 65 74 77 77 74 81 68 65 74 65 61 71 55 52 52 48
0 0 0 0 0 0 0 0 10 10 10 16 16 10 23 32 39 45 52 52 55 71 77 77 77 77 77 84 84 77 81 81 74 77 74 74 81 77 74 74 77 81 61 55 52 65 48 45 58
0 0 0 0 0 0 0 10 13 10 10 10 16 13 19 29 35 52 52 48 61 65 77 77 84 84 84 84 84 84 84 77 74 74 84 77 71 77 77 74 74 74 68 68 65 68 71 68 68
0 0 0 0 0 0 6 6 16 13 13 13 16 16 10 23 26 55 58 58 68 74 81 81 84 84 84 84 81 77 74 74 71 77 74 77 71 71 74 55 77 77 65 61 58 61 55 52 52
0 0 0 0 0 0 6 13 16 29 26 29 23 16 23 23 39 55 65 68 65 77 81 84 87 84 84 84 81 81 84 74 77 71 81 81 77 81 61 77 65 77 81 74 81 77 68 48 48
0 0 0 0 0 3 0 10 19 32 32 32 26 29 32 32 39 65 74 71 68 74 77 71 87 87 87 84 81 81 90 81 71 77 81 71 71 71 81 77 77 81 74 65 74 77 77 61 61
0 0 0 0 0 0 0 0 19 29 35 35 42 42 42 45 39 52 77 74 71 77 77 81 87 87 87 87 84 77 77 71 71 81 74 71 71 68 61 71 68 74 68 74 68 61 71 81 68
0 0 0 0 0 0 0 0 6 19 23 26 32 45 35 42 39 48 65 77 74 74 77 74 77 87 90 87 87 77 68 68 68 68 74 77 71 65 58 68 68 77 71 68 74 81 81 77 71
0 0 0 0 0 0 0 0 3 13 16 13 32 45 42 42 42 55 65 77 84 71 65 71 77 84 84 77 74 81 81 81 74 71 77 71 68 61 52 55 61 71 68 71 77 77 68 71 71
0 0 0 0 0 0 3 0 3 6 10 10 29 35 35 39 48 58 71 77 81 77 71 74 77 81 81 81 74 77 77 74 74 71 71 71 58 52 58 45 65 65 61 58 58 61 61 61 58
0 0 0 0 0 0 3 0 6 6 13 19 29 32 35 35 58 74 77 74 81 74 74 77 81 81 77 71 74 74 74 68 68 68 65 65 55 45 55 55 58 52 52 48 55 55 52 55 52
0 0 0 0 0 0 0 0 6 10 16 16 26 32 39 45 55 61 74 74 74 77 81 81 81 81 84 71 74 71 68 68 65 65 61 58 55 42 45 48 45 42 42 42 45 52 45 42 35
0 0 0 0 0 0 0 0 0 10 13 19 32 42 48 52 52 65 68 68 77 77 81 77 81 84 77 77 71 61 61 61 61 61 61 58 52 45 45 39 32 39 35 39 35 35 45 45 42
0 0 0 0 0 0 0 0 0 6 16 19 32 42 52 52 55 61 68 77 74 71 74 81 81 74 74 68 61 61 58 55 55 52 52 55 52 42 39 35 35 32 32 29 29 29 32 35 35
0 0 0 0 0 0 0 0 0 6 16 26 32 45 48 55 61 61 71 77 84 77 77 74 68 65 71 61 61 55 58 58 52 52 52 52 48 35 35 32 29 29 29 32 26 26 26 26 32

GEFSSGP_con_cape1000_240.txt.gz
Probability
23 26 42 58 39 10 0 0 0 0 0 0 0 0 3 3 0 0 10 10 19 26 35 71 81 77 74 77 77 77 74 74 68 77 77 74 74 71 68 77 74 71 77 81 74 77 71 68 71
16 45 55 35 6 0 0 0 0 0 0 0 0 0 0 0 0 3 10 26 16 23 35 58 84 81 81 84 84 84 74 77 68 74 77 74 74 74 65 68 71 74 74 71 71 71 68 65 58
29 55 26 10 0 0 0 0 0 0 0 0 0 0 0 3 3 13 19 23 26 23 45 77 90 84 81 81 84 84 77 71 77 77 74 74 74 74 71 68 68 71 65 68 68 68 71 71 52
39 32 13 3 0 0 0 0 0 0 0 0 0 0 3 6 6 13 16 19 35 32 45 74 87 87 84 87 87 87 84 84 81 74 74 71 68 77 68 58 61 68 71 61 65 61 55 42 35
29 13 3 0 0 0 0 0 0 0 0 0 0 0 0 0 6 10 13 16 29 32 55 71 87 87 87 84 84 84 87 84 84 81 77 71 71 71 74 68 71 65 65 61 61 48 42 35 35
16 10 0 0 0 0 0 0 0 0 3 3 3 0 0 0 0 0 6 19 19 32 45 68 87 84 87 87 84 84 84 84 81 71 68 68 65 68 71 71 68 58 52 52 55 58 42 35 39
6 0 0 0 0 0 0 0 0 0 0 3 3 0 0 3 10 10 19 19 19 26 42 55 61 81 87 84 87 87 77 74 71 71 68 71 68 61 61 68 61 58 58 52 55 58 35 29 29
0 0 0 0 0 0 0 0 0 0 0 0 0 0 6 6 10 13 16 23 26 29 39 48 55 68 74 74 81 81 77 81 71 71 68 68 61 58 74 71 68 52 45 42 45 35 29 39 42
0 0 0 0 0 0 0 0 0 0 0 0 3 6 10 6 10 10 13 19 32 42 45 45 52 68 58 55 74 77 77 77 71 71 68 71 65 61 71 52 52 48 39 32 42 35 29 55 61
0 0 0 0 0 0 0 0 0 0 0 3 10 6 10 10 16 13 13 16 26 29 32 42 65 61 48 45 84 84 71 84 81 77 81 74 84 71 39 55 58 45 42 48 58 61 52 42 29
0 0 0 0 0 0 0 0 0 0 0 3 6 10 13 16 26 23 32 23 35 39 32 35 71 87 58 71 74 84 77 90 77 74 84 87 74 55 35 55 58 65 58 65 61 71 45 32 35
0 0 0 0 0 0 0 0 0 3 3 3 6 13 16 19 26 26 35 42 42 45 52 42 68 90 94 84 77 84 81 87 81 90 84 77 90 81 81 81 77 74 74 77 71 77 65 55 42
0 0 0 0 0 0 0 0 3 6 6 6 6 6 13 13 19 19 35 32 45 55 55 65 84 87 94 94 87 74 87 71 90 94 90 81 87 90 87 94 94 84 81 81 81 84 81 61 61
0 0 0 0 0 0 3 3 3 6 6 6 6 13 3 10 13 16 35 42 45 48 48 81 77 87 94 97 94 90 81 94 87 90 87 81 87 90 90 84 90 90 94 90 84 81 81 77 71
0 0 0 0 0 0 3 3 3 6 6 3 6 13 10 13 19 23 39 45 45 55 71 77 81 87 90 94 90 77 84 74 87 94 77 81 84 94 94 90 84 90 94 94 94 87 81 81 74
0 0 0 0 0 0 0 3 6 6 3 3 13 13 16 23 26 23 39 48 52 68 74 74 55 74 87 90 94 87 84 94 97 94 84 74 81 90 84 87 77 87 90 90 94 84 90 84 71
0 0 0 0 0 0 0 6 10 0 3 6 10 13 16 26 23 32 26 35 58 74 74 77 77 74 81 87 90 90 94 94 94 94 94 81 84 74 77 84 87 84 84 90 87 87 87 81 68
0 0 0 0 0 0 3 3 6 3 3 10 10 10 19 26 26 39 42 48 52 77 77 81 84 94 90 90 90 90 90 90 90 87 90 90 84 81 77 81 81 84 81 90 87 87 84 77 74
0 0 0 0 0 0 3 6 6 10 3 3 10 13 13 29 29 32 45 45 52 77 81 84 90 94 94 90 90 90 87 87 87 87 84 87 90 87 84 77 90 87 77 81 77 81 81 77 71
0 0 0 0 0 3 3 3 3 6 10 0 10 16 23 35 35 58 55 52 65 84 87 87 90 87 94 94 94 90 90 90 87 87 87 87 87 84 74 87 90 87 87 84 81 81 77 68 65
0 0 0 0 0 3 3 3 3 6 6 10 10 13 23 32 39 52 55 55 61 68 87 87 87 94 94 94 90 90 94 90 90 87 87 84 84 84 90 84 84 90 81 77 81 77 71 74 68
0 0 0 0 0 3 3 3 0 6 13 13 13 13 19 32 39 55 68 71 65 68 77 87 94 94 94 94 90 87 87 87 87 87 84 81 84 87 81 84 90 90 81 77 74 71 74 71 61
0 0 0 0 0 0 0 0 6 10 13 16 19 19 16 23 32 55 65 71 68 71 77 90 94 94 94 94 90 90 87 84 81 81 84 77 77 77 84 84 87 87 84 77 74 74 74 74 68
0 0 0 0 0 0 0 0 6 6 13 10 13 26 26 23 32 55 65 77 74 77 84 90 97 94 90 90 87 87 84 84 77 77 77 71 71 74 77 84 77 81 77 77 74 74 74 71 71
0 0 0 0 0 0 0 0 3 3 10 10 19 26 29 29 32 52 65 77 77 87 84 90 94 94 90 84 84 84 87 81 81 77 71 71 71 71 74 74 74 74 71 71 74 71 68 68 61
0 0 0 0 0 0 0 0 3 3 6 6 16 26 26 32 32 55 61 81 81 87 87 90 90 90 87 77 81 81 81 77 74 74 71 71 65 68 68 68 71 65 68 61 65 61 65 61 61
0 0 0 0 0 0 0 3 3 3 6 3 19 23 29 26 32 48 71 74 77 87 87 87 90 87 81 77 84 84 81 77 71 68 68 68 71 61 65 65 65 61 48 48 55 55 55 48 55
0 0 0 0 0 0 0 3 3 6 6 3 10 26 26 39 35 58 68 84 81 84 90 90 87 84 81 77 77 74 74 71 71 65 65 65 65 65 58 55 48 45 42 35 39 42 42 35 35
0 0 0 0 3 0 0 0 3 13 6 3 16 26 35 42 45 58 68 77 81 81 84 87 84 84 81 77 74 74 74 68 65 65 61 61 61 58 52 48 48 42 35 35 35 32 32 29 26
0 0 0 0 6 0 0 0 3 6 6 6 13 23 39 39 39 58 77 81 90 87 84 84 81 84 77 74 71 71 68 65 65 61 61 61 52 48 52 45 45 32 29 32 32 29 29 26 23

GEFSSGP_con_cape1000_246.txt.gz
Probability
42 26 23 26 10 0 0 0 0 0 0 0 0 0 0 0 0 0 0 3 10 32 52 71 77 81 74 71 74 74 77 74 81 81 77 71 74 74 74 77 77 77 77 74 71 68 58 61 58
10 19 26 13 0 0 0 0 0 0 0 0 0 0 0 0 0 0 3 6 19 26 39 74 77 77 74 81 84 81 87 77 81 87 84 84 74 74 81 81 77 71 71 71 58 65 55 52 52
10 16 16 10 0 0 0 0 0 0 0 0 0 0 0 0 0 0 3 16 23 29 42 74 77 77 77 77 81 77 84 84 81 84 81 77 77 74 77 71 71 74 65 52 48 52 42 48 45
16 13 6 0 0 0 0 0 0 0 0 0 0 0 0 0 3 3 16 23 26 29 52 81 81 81 81 81 84 77 90 81 81 81 77 77 74 65 65 65 65 65 61 45 39 45 39 39 39
13 6 0 0 0 0 0 0 0 0 0 0 0 0 0 6 3 13 19 29 32 35 61 74 84 84 87 84 87 87 87 84 77 74 74 71 71 71 65 71 74 65 61 52 45 48 48 39 45
10 3 0 0 0 0 0 0 0 0 0 0 0 0 3 6 13 16 16 26 29 39 55 74 87 87 87 87 87 87 90 77 77 74 77 71 65 65 65 65 68 74 58 52 45 45 35 45 48
6 0 0 0 0 0 0 0 0 0 0 0 0 0 3 3 6 16 19 23 29 39 52 65 74 81 84 84 84 84 81 84 81 74 74 71 68 61 65 68 58 58 48 45 42 35 42 42 52
3 0 0 0 0 0 0 0 0 0 0 0 0 3 3 6 6 6 13 16 23 29 42 35 48 58 61 77 81 84 81 77 81 90 90 81 71 58 61 65 52 55 48 42 42 39 55 52 58
0 0 0 0 0 0 0 0 0 0 0 0 3 3 3 6 6 3 6 6 16 23 26 29 32 29 42 58 74 77 74 77 71 71 74 68 26 19 45 45 52 61 55 45 55 55 61 65 58
0 0 0 0 0 0 0 0 0 0 0 3 3 6 6 10 3 6 6 10 10 10 13 16 19 16 19 35 42 42 45 42 39 29 42 19 6 6 26 39 61 58 55 48 52 65 58 42 3
0 0 0 0 0 0 0 0 0 3 3 3 3 3 3 3 3 3 3 6 10 10 13 13 19 16 13 26 26 32 23 26 19 19 19 10 6 6 10 6 29 26 26 16 23 26 23 3 3
0 0 0 0 0 0 3 3 6 6 3 3 0 3 3 3 3 3 3 3 10 19 19 26 26 16 13 26 26 39 16 19 26 13 16 10 3 3 3 6 10 10 10 3 3 3 3 3 0
0 0 0 0 3 3 3 3 6 6 0 0 0 6 3 3 3 3 3 6 10 16 16 19 26 13 19 19 26 26 19 19 19 19 19 13 16 3 6 10 3 3 6 3 3 3 3 6 6
0 0 0 3 3 3 3 3 3 3 3 0 3 6 6 6 6 6 10 10 10 10 13 13 19 23 23 23 23 29 23 19 19 29 23 23 16 6 10 10 0 0 3 3 3 0 3 6 6
0 0 0 3 3 3 3 3 0 3 3 6 6 3 3 6 10 10 13 10 13 13 16 23 26 23 23 26 23 26 23 23 26 19 26 26 19 10 16 10 3 6 6 0 0 3 3 3 3
0 0 0 0 3 3 0 0 0 0 3 6 6 6 3 6 13 10 10 13 13 19 19 23 32 19 19 19 26 26 35 23 23 13 23 23 16 16 10 6 6 3 6 6 3 6 6 3 3
0 0 0 0 3 3 0 0 0 0 3 3 6 10 10 13 13 13 13 13 13 19 23 26 29 26 26 29 32 32 26 29 23 19 23 19 13 10 10 10 6 3 10 3 6 6 3 3 3
0 0 0 0 0 3 3 3 3 0 0 6 6 10 10 13 13 13 16 16 16 16 23 26 35 35 35 35 35 29 26 26 29 19 23 26 23 16 13 13 10 3 3 3 3 10 3 3 3
0 0 0 0 3 3 3 3 6 3 3 3 10 6 10 10 10 19 16 16 19 23 29 32 26 35 32 29 35 29 23 26 26 19 16 23 26 32 23 19 10 10 13 10 10 6 0 3 3
0 0 0 0 3 3 3 3 3 0 0 3 10 10 16 13 13 19 16 23 19 23 23 26 29 39 35 35 35 32 32 29 32 19 23 29 29 29 26 16 16 13 10 10 6 6 0 0 3
0 0 0 3 3 3 3 3 3 0 0 3 13 16 16 16 13 13 16 19 29 29 29 39 39 35 39 42 39 35 35 29 26 23 23 19 32 26 19 19 16 13 13 10 10 10 3 0 3
0 0 0 3 3 3 0 0 0 3 6 6 10 16 19 19 13 10 16 23 32 35 42 45 35 35 45 39 39 39 32 29 26 19 23 23 23 26 19 16 23 13 16 10 10 13 6 0 6
0 0 0 0 0 0 0 0 0 0 6 3 10 16 23 23 16 10 16 19 32 35 42 42 39 48 35 39 45 39 39 32 26 16 26 19 19 23 32 26 16 19 23 19 16 16 16 13 13
0 0 0 0 0 0 0 0 0 0 3 6 16 19 26 26 19 16 16 19 32 39 48 45 48 52 42 42 45 45 42 35 23 16 23 16 16 19 32 29 26 29 32 23 16 19 16 10 10
0 0 0 0 0 0 0 0 0 0 3 13 16 19 23 26 26 16 19 26 35 48 52 52 48 52 52 45 48 45 39 35 29 26 26 19 19 23 26 29 23 23 19 23 16 16 16 16 19
0 0 0 0 0 0 0 0 3 0 3 13 16 23 26 26 26 23 29 35 42 48 48 58 55 58 55 58 55 45 42 35 35 32 32 29 16 19 13 19 23 19 19 26 19 19 16 16 16
0 0 0 0 0 0 0 0 0 0 13 13 16 23 23 26 26 29 26 32 32 39 42 55 58 58 58 55 52 39 45 45 39 35 29 23 13 10 13 19 23 23 23 19 16 19 16 13 16
0 0 0 0 0 0 0 0 0 3 13 19 19 19 26 26 26 26 23 29 32 42 45 45 52 52 52 48 52 45 42 45 48 35 23 23 23 19 16 19 19 19 19 19 16 16 16 16 13
0 0 0 0 0 0 0 0 0 6 10 19 23 23 32 32 29 32 35 32 35 35 42 45 48 45 52 52 52 48 45 45 39 32 29 29 29 26 16 26 26 16 19 19 16 13 16 16 16
0 0 0 0 0 0 0 0 0 3 6 13 23 26 42 42 42 45 35 39 45 42 48 45 42 42 52 48 55 52 52 42 35 35 32 29 29 29 32 29 26 19 13 13 16 19 16 13 16

GEFSSGP_con_cape1000_252.txt.gz
Probability
39 26 23 3 0 0 0 0 0 0 0 0 0 0 0 0 0 0 0 0 3 10 35 52 71 71 68 71 71 71 71 71 71 74 74 71 65 74 77 81 68 61 61 61 58 58 61 55 58
26 19 10 0 0 0 0 0 0 0 0 0 0 0 0 0 0 0 3 3 10 26 26 42 65 68 65 71 71 68 71 71 68 71 68 65 65 77 77 68 68 58 65 65 58 55 42 39 39
16 10 0 0 0 0 0 0 0 0 0 0 0 0 0 0 0 0 3 6 10 23 26 42 71 68 65 71 77 74 68 68 71 65 65 61 68 71 65 65 65 58 55 45 45 45 48 45 39
6 0 3 0 0 0 0 0 0 0 0 0 0 0 0 0 3 0 13 16 10 19 35 58 74 71 74 71 74 74 74 74 71 71 61 61 68 61 52 55 52 48 42 32 29 32 39 42 39
3 3 0 0 0 0 0 0 0 0 0 0 0 0 0 0 10 16 19 19 13 19 32 55 77 77 81 81 74 74 71 71 71 71 71 65 58 61 52 48 42 39 42 39 32 32 39 45 45
3 0 0 0 0 0 0 0 0 0 0 0 0 0 0 6 19 23 23 19 19 29 42 52 77 77 84 87 84 74 71 68 71 68 65 58 58 55 48 58 48 42 48 48 42 42 42 42 45
3 0 0 0 0 0 0 0 0 0 0 0 0 0 0 6 19 19 26 23 26 32 39 42 52 58 84 87 87 90 84 81 71 71 68 71 71 71 68 55 48 52 48 48 42 32 29 35 55
3 0 0 0 0 0 0 0 0 0 0 0 0 0 0 0 10 19 23 23 26 29 32 32 39 42 42 58 84 87 87 84 84 77 71 74 71 58 48 52 61 65 58 48 52 45 48 48 61
0 0 0 0 0 0 0 0 0 0 3 3 0 0 0 3 13 16 19 19 23 26 19 16 19 26 29 42 55 61 68 84 77 65 74 52 23 16 32 45 61 58 58 52 58 61 65 61 55
0 0 0 0 0 0 0 0 0 3 3 3 0 3 3 6 10 13 13 16 13 16 16 16 13 16 16 32 26 26 42 35 23 16 13 6 6 6 26 39 61 68 58 58 61 58 42 32 26
0 0 0 0 0 0 0 0 0 3 0 0 0 3 3 6 10 3 3 6 10 13 13 10 13 13 13 13 10 6 13 13 13 10 3 3 3 3 3 3 13 10 16 10 13 6 13 16 10
0 0 0 0 0 3 3 3 0 0 0 0 0 3 3 6 6 6 3 3 3 6 10 10 10 10 10 10 13 3 3 6 3 3 3 0 0 0 0 0 0 0 3 3 3 3 6 6 3
0 3 3 3 3 3 3 0 3 0 0 0 0 3 3 3 3 3 3 0 3 3 13 10 10 10 10 6 6 3 6 6 3 3 0 0 0 0 0 0 0 0 0 3 3 3 3 3 3
0 3 3 3 3 3 0 0 0 0 0 0 0 0 0 0 0 3 6 6 3 6 6 10 10 13 0 0 0 3 3 3 3 0 3 3 0 0 0 0 0 0 0 0 3 3 3 0 3
3 3 3 3 0 0 0 0 3 0 0 0 0 0 0 0 3 3 10 6 3 3 3 3 10 13 0 3 6 3 3 3 0 0 3 6 0 0 0 0 0 0 0 0 3 3 3 3 3
0 0 0 0 0 0 0 0 3 0 0 0 0 3 6 6 3 3 6 6 3 6 6 6 19 6 0 3 0 3 3 0 3 3 3 10 3 0 0 0 0 0 0 0 0 0 3 3 3
0 0 0 0 0 0 0 0 0 0 0 0 3 3 6 10 6 6 6 6 3 3 6 6 3 0 3 3 3 3 3 0 3 3 3 3 3 0 0 0 0 0 0 0 0 0 0 3 3
0 0 0 0 0 0 0 0 0 3 3 0 3 6 6 10 3 3 3 3 6 3 3 6 3 0 3 3 3 3 3 0 3 3 3 3 3 3 0 0 0 0 3 0 0 0 0 3 3
0 0 0 0 0 3 0 0 0 3 3 3 3 6 3 6 3 3 6 6 6 3 6 6 3 0 6 6 6 6 10 6 6 10 6 6 3 6 0 0 0 0 0 0 0 3 0 0 3
0 0 0 3 3 0 0 0 0 3 6 3 3 6 3 0 3 3 6 6 6 6 10 6 3 0 3 6 10 6 6 6 3 3 6 6 6 6 3 0 0 0 3 3 3 0 0 0 3
0 0 0 3 3 3 0 0 0 0 3 6 10 6 3 0 3 3 3 10 6 10 10 6 0 0 6 6 6 10 6 10 10 16 13 10 13 6 6 3 0 0 0 3 3 3 0 0 3
0 0 3 3 0 0 0 0 0 0 0 6 6 10 10 3 3 3 10 13 16 10 6 6 3 3 6 6 3 6 13 13 6 6 10 6 10 13 16 13 3 0 3 3 10 6 3 0 3
0 0 0 0 0 0 0 0 0 0 0 6 6 10 10 10 10 10 10 13 13 10 10 6 3 0 0 3 0 3 6 3 3 3 13 16 10 10 13 13 10 6 3 3 3 6 6 3 6
0 0 0 0 0 0 0 0 0 0 3 3 6 13 13 16 13 13 10 13 13 10 10 10 0 3 0 3 3 3 10 6 10 13 16 13 6 6 10 10 10 6 6 3 3 3 13 10 10
0 0 0 0 0 0 0 0 3 3 3 6 3 10 16 16 13 13 16 16 16 13 13 16 10 0 0 6 6 13 10 10 10 10 13 13 3 3 6 10 10 10 10 10 6 6 13 13 10
0 0 0 0 0 0 0 0 3 3 6 6 6 13 16 16 13 16 16 26 19 16 19 10 10 6 6 13 16 16 13 10 10 13 16 13 6 6 6 13 16 13 13 13 13 13 10 13 10
0 0 0 0 0 0 0 0 0 0 6 10 13 13 16 16 13 16 23 26 19 19 13 6 6 13 13 16 19 19 16 13 13 10 13 6 10 10 10 10 19 16 13 16 16 13 13 19 13
0 0 0 0 0 0 0 0 0 0 3 6 13 13 16 19 29 23 26 26 19 19 6 13 10 13 16 16 23 23 19 16 13 10 13 10 10 10 10 10 16 16 13 13 13 10 6 10 10
0 0 0 0 0 0 0 0 0 3 3 0 10 13 19 32 29 23 23 23 19 13 6 10 13 16 16 23 26 26 19 19 19 13 13 13 13 10 10 10 13 16 16 16 13 10 6 10 13
0 0 0 0 0 0 0 0 0 3 6 3 6 13 19 23 26 26 23 16 19 16 6 10 13 19 26 29 32 29 29 23 23 19 19 16 13 13 10 10 13 23 19 13 13 13 13 13 13

GEFSSGP_con_cape1000_258.txt.gz
Probability
45 48 45 29 13 0 0 0 0 0 0 0 0 0 0 0 0 3 0 0 0 6 23 29 55 68 68 65 61 65 58 61 65 71 71 65 68 77 68 68 74 68 61 55 55 55 55 58 61
35 35 29 10 0 0 0 0 0 0 0 0 0 0 0 0 0 0 3 0 3 10 23 35 58 68 61 61 61 65 65 65 61 68 71 68 68 68 68 71 68 61 45 45 52 52 52 48 61
32 19 6 0 0 0 0 0 0 0 0 0 0 0 0 0 0 0 0 0 6 13 26 48 61 65 61 68 65 68 68 61 65 65 61 61 68 58 65 65 61 58 42 42 45 42 35 35 39
13 6 3 0 0 0 0 0 0 0 0 0 0 0 0 0 0 0 3 0 10 13 29 39 65 68 74 68 68 71 68 68 58 58 65 58 52 52 58 55 52 35 42 45 45 42 35 39 42
10 3 0 0 0 0 0 0 0 0 0 0 0 0 0 3 3 3 3 3 10 16 23 39 74 71 61 71 68 71 77 81 68 65 58 65 55 52 52 48 42 32 32 32 32 26 39 35 42
3 0 0 0 0 0 0 0 0 0 0 0 0 0 3 6 3 3 0 3 6 16 19 32 68 74 77 71 81 81 81 77 74 71 68 65 65 65 52 42 48 42 42 35 29 42 39 39 32
3 0 0 0 0 0 0 0 0 0 0 0 0 0 3 6 13 6 10 10 13 10 16 32 32 61 81 77 77 81 77 71 74 68 71 71 61 58 55 61 42 42 39 32 39 39 35 35 39
10 0 0 0 0 0 0 0 0 0 0 0 0 0 3 13 10 6 6 13 16 16 23 29 32 39 42 55 81 77 74 74 74 65 61 52 48 48 42 52 58 52 45 39 42 39 35 39 42
6 0 0 0 0 0 0 0 0 0 0 0 0 0 3 6 10 13 19 19 13 16 26 23 26 26 35 39 52 68 77 74 77 71 55 48 35 29 39 26 61 58 52 48 52 42 48 45 45
3 0 0 0 0 0 0 0 0 0 0 0 0 0 6 6 10 10 13 13 16 23 19 23 29 32 29 23 52 45 35 55 61 65 55 45 52 52 23 39 39 52 61 65 52 48 45 29 26
0 0 0 0 0 0 0 0 0 0 0 0 0 3 3 3 13 13 19 13 19 19 29 35 32 39 29 32 42 45 55 65 52 61 61 68 39 35 29 39 42 55 42 39 42 39 32 32 35
0 0 0 0 0 0 0 0 0 0 0 0 0 6 3 6 10 13 13 13 19 19 23 32 29 39 42 39 35 35 35 42 42 58 45 42 58 48 42 52 32 39 45 39 39 48 42 32 26
0 0 0 0 0 0 0 0 0 0 0 3 3 13 10 6 6 10 10 10 16 19 23 32 35 45 52 55 48 35 35 35 42 58 55 45 39 48 42 48 55 23 26 35 48 39 45 45 35
0 0 0 0 0 0 0 0 0 6 6 3 3 13 10 6 6 6 16 23 23 19 23 35 42 48 68 65 58 45 26 65 35 42 42 48 42 58 48 55 65 42 39 42 48 45 45 32 32
0 0 0 0 0 3 0 3 0 6 6 3 0 6 10 13 16 19 26 29 23 23 32 42 45 52 55 58 52 35 39 42 42 52 48 45 45 58 52 35 39 52 48 52 52 35 32 35 32
0 0 0 0 0 3 3 0 6 10 10 6 0 3 10 16 16 16 26 35 32 35 48 48 29 52 61 71 74 45 48 52 48 55 55 48 48 52 68 48 52 61 45 42 52 39 35 39 35
0 0 0 0 0 3 3 0 10 10 10 10 6 6 23 23 19 29 32 35 32 45 65 65 52 55 65 71 74 65 74 61 48 48 48 52 52 58 58 61 65 48 45 29 23 45 39 48 45
0 0 0 0 0 3 3 0 13 6 10 10 6 6 16 23 29 29 39 35 39 48 65 68 68 74 74 71 77 71 71 61 52 55 68 58 55 61 55 58 65 52 45 48 68 65 65 61 55
0 0 0 0 0 0 3 3 16 13 10 13 10 6 10 23 26 32 39 45 45 52 68 71 77 81 87 77 68 71 68 68 58 55 65 65 61 65 74 52 61 55 55 61 48 52 55 52 61
0 0 0 0 0 0 0 0 10 19 16 16 13 13 16 23 32 32 39 48 48 61 68 74 81 77 77 87 81 77 77 68 61 58 74 65 61 61 48 68 55 68 68 58 58 65 55 52 55
0 0 0 0 3 3 3 6 19 19 16 16 16 13 13 19 26 32 32 45 48 55 65 55 81 81 81 77 81 74 81 77 58 58 71 55 61 58 61 61 61 71 58 61 61 58 55 52 55
0 0 0 0 3 0 3 3 10 29 26 16 16 16 16 16 19 26 35 45 52 58 58 74 90 90 90 87 77 77 77 55 61 65 65 65 65 61 58 61 65 68 58 61 55 48 55 58 48
0 0 0 0 3 0 0 0 3 23 32 26 19 19 16 16 16 19 29 45 48 55 61 68 90 87 87 87 87 87 65 65 55 61 68 65 58 52 45 55 65 61 65 65 61 61 48 52 48
0 0 0 0 0 0 0 0 3 6 16 23 29 16 19 16 16 19 26 42 52 58 65 65 87 90 81 81 71 81 74 71 61 71 65 55 52 52 45 52 61 61 55 52 55 58 55 48 52
0 0 0 0 0 0 0 3 6 6 6 6 23 23 23 26 19 26 32 52 71 68 71 77 84 81 81 77 74 74 74 71 68 58 61 58 42 39 55 42 55 58 55 48 52 48 48 42 45
3 0 0 0 0 0 3 3 6 6 6 13 19 23 19 19 29 32 39 58 68 74 84 84 81 81 74 71 74 71 71 61 58 61 52 48 45 35 35 45 52 52 52 45 48 39 39 45 39
3 0 0 0 0 0 0 6 6 6 13 13 13 23 23 26 29 42 39 48 58 65 81 81 77 81 77 68 71 68 68 68 58 61 58 52 52 42 45 48 48 48 48 48 45 45 48 45 35
3 3 0 0 0 0 0 3 6 6 13 10 13 29 35 32 32 39 39 55 61 61 68 77 77 77 77 68 65 61 71 71 68 61 58 52 55 52 48 45 45 48 45 45 48 45 48 48 42
3 0 0 0 0 0 0 3 6 6 10 10 19 26 42 45 35 42 52 61 65 58 65 74 77 77 77 71 61 61 61 65 68 68 61 61 61 58 52 52 52 48 52 48 48 39 39 35 42
0 0 0 0 0 0 0 6 6 10 6 10 10 26 39 48 52 35 39 58 61 65 58 58 61 65 71 65 61 61 61 61 65 68 61 61 55 55 55 55 55 48 45 48 42 39 35 35 35

GEFSSGP_con_cape1000_264.txt.gz
Probability
29 29 55 81 45 13 0 0 0 0 0 0 3 3 0 3 3 0 0 3 3 6 23 39 58 52 52 42 45 55 52 55 48 52 58 55 55 48 45 48 45 61 58 55 58 55 65 61 45
26 39 61 42 19 0 0 0 0 0 0 0 3 0 6 3 3 3 3 6 3 10 16 32 55 55 48 52 52 58 52 55 48 48 55 55 52 55 52 42 45 52 48 45 52 52 55 52 42
29 58 35 23 0 0 0 0 0 0 0 0 3 0 3 3 3 6 6 3 13 16 19 39 52 52 52 58 61 58 55 55 48 55 52 48 48 42 45 39 48 52 42 45 42 39 35 39 35
55 39 13 3 0 0 0 0 0 0 0 0 0 3 0 0 3 6 3 6 13 16 19 39 58 55 55 55 58 52 48 48 58 61 58 58 52 42 42 39 42 45 42 39 45 35 35 32 26
48 19 6 0 0 0 0 0 0 0 0 0 0 0 0 0 3 0 6 10 19 23 23 29 65 65 61 58 58 65 61 52 52 52 55 61 52 48 39 39 39 32 35 32 39 35 32 29 23
23 6 3 0 0 0 0 0 0 0 0 0 0 0 0 3 6 3 10 10 16 16 23 42 74 74 71 68 74 71 65 65 52 48 52 55 61 52 42 42 39 42 35 42 42 35 39 42 23
10 3 0 0 0 0 0 0 0 0 0 0 0 3 3 6 6 6 13 13 10 10 10 35 52 65 77 77 71 74 68 68 65 52 45 55 52 52 48 45 39 39 45 42 39 39 29 19 19
10 3 0 0 0 0 0 0 0 0 0 0 3 0 3 3 3 6 13 13 16 16 13 13 29 39 45 48 74 71 68 58 58 55 48 52 55 48 55 55 48 39 35 29 26 26 35 32 26
3 0 0 0 0 0 0 0 0 0 0 0 0 3 0 0 3 6 13 13 23 19 16 13 23 35 32 26 39 58 65 52 48 48 58 58 48 35 39 39 45 39 35 26 32 32 42 42 39
0 0 0 0 0 0 0 0 0 0 0 0 0 3 3 3 3 3 13 16 26 29 23 26 32 26 19 19 55 52 35 74 65 61 65 61 58 52 29 45 52 48 42 45 45 52 45 42 29
0 0 0 0 0 0 0 0 0 0 3 0 3 3 0 6 3 6 13 19 23 35 32 32 39 48 35 35 32 58 55 71 65 61 71 74 61 61 42 48 55 55 39 48 48 55 48 45 39
0 0 0 0 0 0 0 0 0 0 3 3 3 3 6 10 10 6 10 19 23 26 32 35 45 61 71 65 52 61 52 68 68 74 61 68 68 81 68 71 71 61 55 65 55 58 52 52 45
0 0 0 0 0 0 0 0 0 0 3 3 0 3 6 6 10 13 10 16 26 29 35 48 48 61 71 77 77 61 71 55 65 77 77 77 74 77 81 84 81 71 65 65 71 68 55 55 45
0 0 0 0 0 0 0 0 0 0 0 3 6 3 6 10 16 19 23 26 26 23 29 48 48 71 77 74 77 77 71 77 68 77 71 77 77 77 84 81 84 81 65 61 58 58 52 48 48
0 0 0 0 0 0 0 3 3 0 0 3 6 6 6 16 16 19 23 29 26 35 42 58 61 68 87 77 81 81 74 55 68 81 74 74 81 81 84 87 87 84 77 74 68 65 65 58 55
0 0 0 0 0 0 0 3 6 3 0 3 6 10 13 16 13 19 19 35 39 45 65 68 45 65 90 90 90 81 71 81 81 81 77 68 71 77 84 84 81 84 84 84 81 77 74 71 68
0 0 0 0 0 0 0 3 6 6 6 6 6 10 16 19 19 23 26 26 39 65 74 81 71 71 84 90 90 90 87 81 84 81 74 74 68 65 74 77 81 84 81 81 74 77 77 71 68
0 0 0 0 0 0 0 3 10 13 10 10 10 10 19 23 26 23 26 29 42 68 81 81 90 94 94 94 94 94 87 90 81 81 77 81 71 71 74 74 77 74 81 81 81 77 77 71 68
0 0 0 0 0 0 0 0 6 6 10 10 10 16 16 23 29 32 39 32 52 68 77 84 87 94 94 94 94 90 90 90 87 84 81 81 71 71 81 74 77 77 81 81 77 74 65 74 74
0 0 0 0 0 0 0 3 3 10 10 10 6 13 16 26 32 32 39 48 58 77 84 90 94 94 94 94 94 90 90 90 87 84 84 84 77 71 65 74 74 77 81 77 74 77 61 61 61
0 0 0 0 0 0 0 0 10 13 10 16 13 13 19 19 29 48 48 52 58 77 94 81 94 94 94 94 94 90 90 87 87 87 84 77 74 74 71 71 71 74 74 74 74 68 71 61 58
0 0 0 0 0 0 0 0 6 19 16 16 19 19 19 19 26 35 48 55 58 81 87 97 97 94 94 94 90 90 84 84 84 87 84 81 71 65 61 74 74 74 74 77 68 74 71 71 65
0 0 0 0 0 0 0 0 3 16 19 19 19 16 23 19 26 29 39 65 65 68 84 97 97 97 94 94 87 87 87 87 84 84 84 81 77 74 68 68 71 74 71 77 71 74 71 68 61
0 0 0 0 0 0 0 0 3 16 23 19 19 19 23 23 23 32 48 65 65 68 74 87 97 97 90 84 87 87 87 84 84 77 81 74 77 77 71 65 68 71 68 68 61 74 68 61 61
0 0 0 0 0 0 0 3 6 6 10 13 26 19 19 19 23 29 52 61 68 68 71 90 94 90 87 87 81 81 81 81 77 77 81 77 77 77 74 58 68 65 65 58 58 71 61 58 61
0 0 0 0 0 0 0 3 6 6 10 6 19 26 26 19 23 35 39 65 61 68 81 87 94 90 90 87 87 84 87 77 81 77 77 77 77 71 58 61 61 58 61 58 55 65 55 65 65
0 0 0 0 0 0 0 6 6 6 3 6 10 23 29 19 23 29 39 39 52 58 77 87 87 94 94 90 90 90 84 84 81 77 74 68 74 68 61 58 58 55 58 58 61 65 55 58 58
0 0 0 0 3 0 0 6 6 6 3 10 6 13 26 26 16 29 35 45 45 61 77 87 87 90 94 84 84 77 81 84 84 71 77 71 68 68 61 58 58 58 61 58 52 61 55 52 52
0 0 0 0 3 0 0 6 6 6 6 3 10 23 29 32 26 32 32 48 48 48 58 77 81 90 87 87 84 84 81 81 84 77 74 68 71 71 68 61 58 61 61 58 55 55 58 48 45
0 0 0 0 6 0 0 6 6 10 3 3 3 13 29 26 29 42 32 45 52 52 58 77 77 84 81 81 84 84 81 74 74 77 71 68 71 74 68 68 65 61 61 61 58 58 52 42 39

GEFSSGP_con_cape1000_270.txt.gz
Probability
35 19 19 29 10 0 0 0 0 0 0 0 0 0 0 0 0 3 3 3 6 13 23 48 58 55 58 58 61 61 58 55 58 55 58 65 58 58 58 58 61 55 61 58 52 48 55 65 61
10 13 26 23 3 0 0 0 0 0 0 0 0 0 0 3 3 3 3 6 6 6 13 26 58 58 55 55 55 45 52 55 52 52 55 55 48 52 55 58 55 55 58 55 42 45 39 39 42
13 16 23 6 0 0 0 0 0 0 0 0 0 0 0 0 3 3 3 3 6 6 16 39 61 65 61 55 55 48 48 48 52 52 52 52 48 52 52 45 52 55 52 52 39 29 26 32 32
19 16 10 0 0 0 0 0 0 0 0 0 0 0 0 3 0 3 3 6 6 19 26 42 65 71 61 58 55 55 55 55 55 55 55 48 48 45 45 42 55 48 45 45 39 35 26 26 35
16 13 3 0 0 0 0 0 0 0 0 0 0 3 3 3 3 3 6 6 6 13 26 48 81 71 65 65 68 61 52 65 61 58 58 58 52 48 42 48 48 55 52 48 52 42 39 45 45
16 3 0 0 0 0 0 0 0 0 0 0 0 0 0 0 6 3 0 3 3 13 26 48 77 74 68 71 71 65 58 55 58 58 55 55 52 61 61 52 55 52 55 48 48 39 35 29 32
10 3 0 0 0 0 0 0 0 0 0 0 0 0 0 0 0 3 3 0 3 10 23 35 48 68 71 74 74 65 58 58 58 55 52 58 52 55 52 52 42 42 48 48 42 39 42 29 35
6 6 0 0 0 0 0 0 0 0 0 0 0 0 0 0 0 0 0 0 3 10 19 19 16 23 29 45 71 61 55 58 52 55 55 61 58 58 55 52 58 45 39 42 39 35 26 26 32
6 0 0 0 0 0 0 0 0 0 0 0 0 0 0 0 0 0 0 0 0 10 10 6 6 6 6 13 52 55 42 52 52 52 52 42 26 35 35 42 45 42 42 45 42 35 52 42 48
0 0 0 0 0 0 0 0 0 0 0 0 0 0 0 0 3 3 0 0 0 0 3 6 10 6 3 13 13 13 19 19 16 13 23 6 6 6 16 26 45 45 48 52 55 55 55 35 13
0 0 0 0 0 0 0 0 0 0 0 0 0 0 0 0 0 0 0 0 0 0 0 3 6 6 6 10 10 6 6 10 10 13 6 3 0 0 3 3 13 19 19 16 23 29 26 16 10
0 0 0 0 0 0 0 0 0 0 0 0 0 0 0 0 0 0 3 3 6 3 3 6 13 13 6 13 13 10 10 10 6 3 3 3 3 0 0 0 3 3 0 0 0 0 3 3 6
0 0 0 0 0 0 0 0 0 0 0 0 0 0 0 0 0 0 3 6 6 6 10 13 13 13 13 10 19 16 10 6 3 3 3 3 0 3 0 0 0 0 0 0 0 0 0 0 0
0 0 0 0 0 0 0 3 0 0 0 0 0 0 0 0 3 3 6 6 10 10 10 13 13 10 13 13 16 16 10 10 6 6 6 3 0 6 3 3 3 0 0 0 0 0 0 0 0
0 0 0 0 0 0 0 3 3 0 0 0 0 0 0 3 3 3 3 10 6 10 10 10 13 19 13 13 16 16 13 13 13 6 6 6 10 13 6 6 6 3 0 0 0 3 3 3 3
0 0 0 0 0 0 0 0 3 0 0 0 0 3 3 3 6 6 10 10 6 13 10 10 16 19 19 23 16 16 10 13 10 6 6 6 10 10 10 10 10 3 3 3 6 6 6 3 3
0 0 0 0 0 0 0 0 0 0 0 0 0 3 6 6 6 6 10 6 10 10 10 10 16 23 26 23 23 23 13 19 13 10 6 13 6 10 6 6 6 6 6 6 6 10 6 6 6
0 0 0 0 0 0 0 0 0 0 0 0 0 3 3 6 6 10 10 6 13 16 19 16 19 23 29 23 13 19 16 13 16 10 3 10 13 16 3 3 3 6 10 6 10 6 6 10 6
0 0 0 0 0 3 0 0 0 0 0 0 0 3 3 6 6 10 10 13 16 13 19 23 19 19 23 26 23 19 16 23 23 13 13 16 13 10 10 10 6 10 13 10 13 6 6 6 6
0 0 0 0 0 3 3 0 0 0 0 3 0 6 3 6 6 10 13 13 29 26 26 23 23 19 23 26 26 19 16 23 19 23 19 19 16 10 13 10 13 13 10 13 16 13 10 6 6
0 0 0 0 3 3 3 0 0 0 0 3 3 3 10 10 10 13 16 16 23 26 29 23 19 19 23 26 19 26 19 29 29 26 23 29 16 16 19 10 13 13 16 16 16 13 16 13 6
0 0 0 0 0 3 0 0 0 0 0 0 0 3 3 6 10 13 16 13 26 29 32 23 26 29 29 29 35 35 29 29 19 23 26 23 19 13 10 10 13 10 13 16 16 13 13 13 13
0 0 0 0 0 0 0 0 0 0 0 0 3 6 10 13 10 10 10 19 23 35 35 35 32 29 32 35 32 35 32 32 29 26 32 23 13 10 16 19 10 13 16 16 19 16 16 19 16
0 0 0 0 0 0 0 0 0 0 6 3 6 10 6 16 19 10 13 23 32 39 45 39 42 45 42 39 29 29 32 35 35 35 29 26 13 16 16 23 23 16 16 19 19 19 19 19 19
0 0 0 0 0 0 0 3 3 3 3 3 10 10 10 16 16 13 13 16 29 39 45 42 39 45 42 39 35 32 32 39 39 39 39 26 29 26 26 26 23 23 23 23 23 23 19 19 19
0 0 0 0 0 0 0 3 3 0 0 3 6 13 16 16 16 13 16 19 19 32 39 42 39 45 39 42 39 42 32 39 32 35 32 32 32 29 26 23 26 26 26 29 29 29 26 19 16
0 0 0 0 0 0 3 3 0 0 0 3 10 13 16 13 13 16 13 16 19 19 35 42 42 45 35 42 42 42 35 39 42 35 32 29 23 26 26 23 32 26 23 32 26 23 26 26 26
0 0 0 0 0 0 0 0 0 0 0 3 6 19 16 16 16 13 16 13 19 16 29 39 39 39 42 39 45 42 42 42 35 35 35 29 29 26 26 29 32 29 26 32 23 23 26 23 23
0 0 0 0 0 0 0 0 0 0 0 0 6 10 16 16 16 13 16 13 13 26 29 35 39 39 39 45 42 42 39 42 39 39 39 39 35 32 29 32 35 32 32 29 26 26 26 26 26
0 0 0 0 0 0 0 0 0 0 0 0 3 6 13 13 13 6 10 19 19 19 26 35 35 42 42 48 45 39 35 39 39 39 42 42 35 39 29 26 32 35 35 35 35 32 29 26 26